GFSSGP_250_spd_078.txt.gz
Wind_Speed
49 47 45 44 44 43 41 42 44 43 45 46 47 48 51 54 56 59 60 62 64 66 67 68 68 69 68 67 68 69 69 70 68 70 74 74 76 77 76 76 77 74 72 67 70 70 73 77 79
44 45 43 39 39 40 39 38 38 38 37 41 43 47 51 54 55 56 58 56 59 64 65 65 65 65 61 61 61 60 63 59 59 61 64 72 69 70 72 72 71 68 63 63 61 65 65 72 78
43 45 43 39 36 38 39 39 39 36 39 45 47 45 45 46 51 54 53 52 56 58 59 57 53 58 56 54 47 47 52 49 48 54 55 65 66 65 66 64 63 60 57 61 54 57 58 55 54
44 45 43 39 36 37 37 38 37 39 42 45 44 44 44 46 48 48 47 50 51 53 54 50 47 47 45 41 44 19 39 47 41 42 47 52 58 64 64 58 52 50 48 51 59 50 46 36 37
40 42 38 36 36 28 26 29 34 36 37 40 38 40 40 41 46 42 45 49 50 48 46 42 38 38 39 36 39 35 38 33 32 34 37 44 54 56 58 55 45 42 43 49 39 26 27 30 22
37 35 35 27 23 21 24 31 36 33 34 39 42 39 38 42 43 38 42 41 42 31 23 23 30 35 33 8 43 44 50 38 30 28 30 34 44 48 49 45 40 35 42 27 30 20 14 13 14
37 34 28 23 23 25 27 30 30 31 39 38 32 34 36 38 37 37 32 27 21 18 13 24 29 35 35 47 53 55 47 46 40 34 29 29 27 43 43 39 40 39 30 29 24 16 18 16 13
37 34 28 28 30 29 26 31 30 31 34 34 36 31 34 34 33 35 24 18 14 17 19 26 30 29 42 41 50 62 59 58 49 43 31 32 28 34 39 41 42 27 22 26 21 19 17 21 17
37 34 30 30 33 34 29 27 29 32 33 35 32 29 32 34 32 33 22 12 15 15 18 25 30 36 35 36 43 51 50 50 52 39 30 29 30 36 37 33 30 28 24 25 25 19 25 18 20
37 35 31 32 36 32 26 31 33 34 32 25 27 26 29 31 33 31 22 13 14 13 19 25 30 35 33 37 40 43 42 58 55 48 39 33 31 37 41 39 35 29 24 31 27 26 27 25 25
39 39 32 32 35 31 30 33 34 34 31 25 24 24 28 30 31 29 23 18 11 16 15 19 25 38 37 41 37 37 38 58 51 43 28 40 36 35 32 32 32 28 28 30 27 30 29 25 28
41 38 31 30 33 33 32 33 32 35 31 29 27 27 29 31 30 28 24 22 17 17 12 22 19 20 35 38 38 40 40 54 56 52 33 41 42 42 36 31 31 27 30 32 27 28 33 31 33
45 37 34 32 34 38 36 34 37 35 31 30 30 30 27 30 30 28 26 22 22 20 22 12 28 20 26 33 43 43 49 56 59 55 37 48 54 48 52 46 34 30 32 41 36 37 34 34 35
42 39 35 33 33 38 38 33 38 35 31 28 28 26 26 28 29 28 27 21 24 23 23 23 24 23 17 25 41 46 46 45 50 46 37 44 54 54 51 47 48 30 38 42 41 41 43 49 44
42 39 36 33 31 36 39 36 38 34 26 26 27 26 27 26 28 28 27 21 22 27 26 25 20 30 31 28 29 46 47 47 46 47 44 52 58 58 51 42 37 36 38 41 44 43 36 40 44
41 41 39 33 33 33 39 41 35 30 26 26 25 27 27 21 26 26 27 22 22 26 30 29 30 28 35 29 25 47 42 53 52 46 47 51 55 54 48 42 41 39 39 37 40 44 46 46 44
43 45 38 30 32 32 38 39 28 27 26 28 25 25 21 25 24 25 26 22 20 25 30 32 36 29 36 40 29 47 44 49 49 45 45 47 48 56 59 55 53 49 47 51 49 50 50 45 43
47 41 36 37 27 28 31 33 29 30 29 29 26 22 18 28 28 25 25 28 16 21 30 33 36 36 33 47 40 40 55 42 51 51 48 53 52 49 51 54 54 54 55 52 52 55 54 51 53
43 39 39 37 27 27 29 33 34 31 30 29 24 26 20 24 28 26 26 28 17 18 23 32 36 34 35 46 47 45 55 57 38 55 46 56 58 55 54 54 59 59 61 55 48 53 60 58 59
45 44 45 38 28 26 28 35 34 31 30 27 24 28 20 24 26 25 26 29 23 20 20 23 31 32 32 34 56 49 53 58 56 39 47 50 48 43 47 54 62 54 53 53 55 54 57 59 61
45 42 48 40 26 27 30 37 34 27 28 25 25 25 25 22 25 24 25 29 28 20 15 20 19 22 22 29 45 59 56 56 62 56 48 54 57 55 51 47 46 52 54 56 57 57 61 62 66
49 49 49 41 30 30 32 36 34 27 28 25 24 24 26 25 22 23 23 28 28 24 14 13 14 18 19 21 30 47 62 63 61 69 63 54 55 61 64 58 60 57 55 57 57 57 63 67 67
53 52 48 39 29 33 39 33 38 33 28 26 26 24 24 26 24 23 21 24 27 28 19 9 8 16 21 22 23 27 38 58 61 65 65 63 62 57 63 65 64 65 70 68 69 71 72 71 62
54 50 42 40 34 36 46 34 41 37 29 28 28 21 26 28 26 21 22 19 24 28 25 16 11 10 14 24 24 25 34 36 43 51 59 62 62 60 56 58 61 63 64 71 71 69 68 67 65
51 54 52 48 40 37 49 37 40 40 34 30 29 23 26 26 28 21 25 21 20 24 26 22 15 16 16 16 18 23 27 30 34 39 41 42 46 47 47 52 55 58 57 54 58 60 60 57 53
52 50 53 51 47 43 39 38 38 45 38 36 30 26 27 28 28 21 23 24 22 18 23 19 19 15 20 20 18 19 17 23 28 32 34 36 39 42 42 45 46 47 50 53 53 53 52 55 52
55 53 55 54 50 50 42 41 40 46 40 38 34 31 29 27 29 27 25 23 25 20 17 20 17 17 18 25 26 22 23 24 23 27 30 33 34 34 35 37 41 41 43 43 45 47 47 47 50
58 58 55 51 49 48 45 44 42 47 45 41 40 36 35 32 25 31 30 29 25 23 19 18 20 18 17 18 27 31 27 28 29 29 30 31 33 34 37 38 38 38 42 43 45 47 48 48 54
60 57 54 52 50 53 51 49 46 50 48 45 44 41 40 35 32 31 32 33 28 25 25 21 20 18 16 19 18 27 33 36 37 35 33 35 40 39 38 36 39 45 48 50 47 53 57 58 55
58 57 53 53 53 54 48 43 40 48 49 47 45 48 46 41 37 39 35 36 34 31 27 28 25 21 18 18 18 18 24 31 37 41 40 40 43 42 42 40 43 44 42 42 45 48 49 47 45

GFSSGP_250_spd_081.txt.gz
Wind_Speed
45 39 41 44 46 45 43 42 42 42 43 43 46 47 49 50 51 55 59 59 61 64 65 66 69 73 73 74 73 71 69 73 74 74 73 75 75 76 75 76 77 77 80 80 79 78 77 76 76
47 44 47 50 48 45 46 44 42 40 40 38 38 38 42 45 49 51 52 55 57 59 61 61 63 65 65 66 63 60 61 60 59 59 64 69 70 75 73 74 73 72 73 73 71 70 70 68 70
44 45 48 53 52 48 46 40 41 37 36 36 38 41 46 44 45 47 49 53 56 59 59 61 60 61 61 57 54 54 54 50 43 36 44 54 61 66 68 69 72 71 66 67 66 61 58 62 62
47 47 50 50 52 51 46 39 37 32 27 33 39 40 40 42 42 45 46 47 51 55 54 54 50 52 49 40 40 37 34 30 35 42 42 45 50 57 59 61 60 64 64 62 61 56 55 60 54
53 50 50 49 50 46 42 34 24 24 29 37 41 42 45 44 43 47 48 45 48 47 47 43 43 42 39 29 20 21 18 22 50 41 41 42 40 46 52 52 56 53 55 53 51 39 48 45 43
53 51 51 48 48 40 34 24 23 30 35 32 36 41 40 39 42 43 42 41 42 38 42 40 34 30 28 28 28 34 34 23 35 47 27 24 31 33 41 46 46 43 40 40 33 42 34 28 26
44 49 50 49 48 35 31 30 30 30 30 29 36 38 37 36 40 41 37 37 33 33 35 29 21 19 19 22 34 42 46 42 55 42 31 28 21 31 36 45 47 41 35 35 34 25 26 28 23
52 51 49 48 49 37 36 35 37 33 28 31 35 36 34 38 36 36 33 31 28 30 27 25 12 18 28 33 38 46 48 48 48 41 36 32 25 27 33 35 38 40 32 25 23 27 28 23 19
54 53 51 47 49 40 36 39 34 32 31 34 35 33 32 38 38 34 27 28 25 26 23 23 19 23 26 44 45 55 58 47 44 45 45 38 39 30 24 25 30 37 31 32 34 22 25 21 22
54 54 55 47 46 41 38 39 34 32 34 37 36 34 31 38 36 32 27 25 23 23 21 23 21 29 34 47 50 52 65 54 56 52 47 49 45 36 25 28 32 35 35 32 30 20 23 21 23
59 60 52 49 47 44 39 39 36 33 36 36 36 35 38 38 39 34 27 25 24 22 20 19 22 29 34 37 42 50 54 64 53 54 48 47 45 45 29 25 30 38 40 35 29 28 27 32 25
58 63 53 47 48 46 39 38 36 34 38 35 38 38 38 38 34 33 28 24 24 24 23 21 23 27 34 39 38 41 47 53 62 59 53 50 48 39 29 29 32 34 34 27 26 31 34 34 29
67 66 55 44 46 48 42 39 39 35 37 35 40 41 41 33 35 34 28 27 24 21 25 24 20 27 27 27 36 38 46 49 54 57 60 54 38 35 32 26 30 33 32 27 30 32 30 29 30
67 63 53 46 46 48 43 37 37 34 32 36 38 40 39 34 34 31 25 25 25 22 24 27 26 25 27 23 27 33 41 47 56 61 59 46 38 38 32 30 34 28 28 29 29 32 34 30 34
61 58 51 48 44 46 44 39 35 34 34 36 34 39 36 31 27 28 27 24 26 26 21 33 31 28 31 29 21 17 40 43 48 59 52 50 35 43 35 33 37 34 44 34 32 32 40 38 40
55 53 50 49 44 44 44 42 31 37 35 36 30 36 35 23 26 28 23 24 25 27 25 25 34 33 33 32 27 27 25 43 47 57 58 48 31 37 38 43 39 44 41 47 32 36 40 45 43
51 50 48 47 46 44 45 42 29 36 36 29 31 33 34 25 25 29 23 22 26 26 24 24 26 35 28 39 33 27 20 43 45 55 64 60 42 42 45 47 45 54 44 45 36 41 45 49 48
50 53 50 46 43 45 48 41 33 34 32 27 29 32 33 26 24 27 24 21 24 25 21 22 22 29 34 29 38 31 22 28 47 53 58 56 46 47 49 48 49 53 48 46 47 50 47 48 42
54 52 50 46 45 46 43 40 35 32 31 23 24 30 30 26 23 25 26 19 22 26 23 22 23 24 28 36 33 39 30 30 44 53 39 54 52 48 50 47 52 54 52 55 51 52 54 53 50
55 55 50 48 47 45 41 40 38 33 29 23 20 25 27 25 20 23 26 20 20 24 21 17 18 21 23 29 36 40 39 33 45 44 50 47 49 48 46 50 52 56 58 58 53 57 57 56 53
54 52 51 49 46 43 42 40 40 37 29 25 21 22 23 24 24 26 27 22 19 22 22 16 16 18 16 24 30 32 44 38 36 46 46 47 50 53 53 55 54 52 53 55 56 60 62 58 58
54 53 53 47 47 43 44 40 43 41 30 26 22 24 23 21 22 25 24 23 20 19 22 20 13 14 20 20 26 30 44 43 41 46 45 46 50 47 56 51 57 60 57 56 57 62 62 60 62
51 55 52 48 47 42 41 41 49 42 32 28 27 26 25 23 20 21 19 23 21 18 19 21 14 12 13 16 25 29 41 47 47 50 51 52 55 52 51 52 49 58 64 68 68 65 63 60 64
56 58 51 49 50 46 44 46 49 48 34 31 30 29 28 25 23 23 24 21 21 21 18 19 19 13 10 11 18 22 32 41 50 50 51 54 58 58 59 57 58 59 61 64 67 65 66 68 68
55 54 53 52 47 48 48 48 45 49 42 37 33 33 31 27 25 24 20 20 22 21 21 19 17 17 14 14 14 19 25 33 39 49 53 56 56 59 61 60 58 61 67 68 69 71 68 67 69
52 52 54 55 54 56 49 46 46 50 50 42 40 34 33 30 29 24 21 21 25 24 21 20 18 17 19 16 17 16 18 25 33 38 44 52 59 60 59 61 59 59 61 67 66 64 66 67 66
52 52 52 53 50 54 53 51 49 44 50 46 46 41 36 31 29 28 25 22 27 27 23 21 19 18 16 18 16 19 22 22 23 30 35 39 41 44 45 49 57 58 59 59 59 59 60 63 64
54 56 55 50 51 53 52 52 56 51 48 47 48 44 39 37 33 32 33 26 25 26 26 24 22 20 18 17 17 18 19 25 26 28 28 26 29 33 38 41 43 46 48 49 53 55 56 58 59
60 58 56 48 51 51 52 54 56 54 50 48 47 48 47 40 35 36 36 33 30 31 28 28 25 22 20 21 19 20 18 17 26 29 31 30 29 28 30 33 35 38 42 45 46 48 48 50 51
58 55 56 58 58 55 55 56 56 56 55 52 53 53 48 41 36 39 39 38 38 38 32 29 29 26 24 20 21 19 19 18 16 20 29 36 39 38 38 39 43 45 46 45 47 46 50 50 50

GFSSGP_250_spd_084.txt.gz
Wind_Speed
43 42 41 44 45 47 49 42 46 41 39 41 40 44 46 47 49 52 53 55 56 57 62 63 65 67 69 71 72 72 69 68 71 73 71 70 70 71 71 72 73 74 77 79 82 81 81 78 78
45 43 41 45 48 49 52 45 45 44 38 37 39 41 40 46 44 46 49 49 49 48 51 58 57 59 62 65 64 60 56 57 58 58 58 57 55 55 59 63 69 72 72 72 74 74 75 72 71
42 42 44 47 47 51 55 46 47 41 40 38 38 36 39 39 40 41 45 47 50 50 50 54 52 55 54 55 50 44 43 45 47 44 45 45 35 32 40 50 57 61 68 71 70 71 71 68 65
42 39 44 44 46 47 49 48 44 45 38 37 37 33 31 42 41 43 45 43 44 49 53 53 52 51 51 46 42 35 24 24 28 25 25 28 33 39 42 44 49 45 52 56 63 64 63 62 55
43 45 44 44 43 43 46 46 46 44 36 29 31 34 35 40 35 40 42 45 46 49 50 51 48 45 43 35 32 27 32 14 17 19 33 36 39 38 46 49 46 44 44 47 47 45 52 51 50
50 50 44 46 47 43 45 45 46 44 37 31 35 38 32 35 37 41 40 43 47 48 46 43 38 34 33 30 30 31 43 36 30 35 39 38 38 38 32 36 37 42 43 40 40 47 48 47 49
51 49 52 49 46 47 37 47 43 45 39 38 35 37 33 37 31 36 37 43 47 47 40 36 34 29 26 27 26 37 41 42 48 42 38 38 36 34 20 24 27 33 35 30 34 34 34 33 34
61 53 51 52 47 43 47 44 43 45 41 42 37 37 34 35 34 35 37 40 44 43 37 31 28 25 23 19 29 46 43 43 36 42 51 40 35 31 30 23 26 35 30 29 29 41 30 27 25
64 58 56 60 51 50 46 46 42 45 44 41 38 38 37 36 34 35 43 43 45 41 35 29 26 22 20 27 33 41 54 52 49 51 48 48 38 36 34 33 28 31 34 34 34 33 26 25 26
63 59 64 56 51 49 50 43 45 44 44 44 39 42 39 35 36 35 42 45 42 42 35 28 25 24 21 30 31 44 52 52 48 39 53 57 50 38 39 30 24 29 29 34 32 29 26 22 21
68 62 64 58 53 52 54 51 47 45 45 42 42 39 36 41 36 36 40 42 41 42 35 27 25 24 29 35 40 44 50 56 60 47 40 50 55 45 45 38 29 32 25 34 37 33 32 28 23
69 64 66 62 55 54 58 53 47 43 45 43 43 41 35 34 40 41 44 43 40 39 36 27 27 24 31 38 43 50 60 59 60 54 42 46 51 47 41 38 32 29 23 32 37 35 31 27 27
75 68 64 63 60 54 55 52 46 43 45 42 42 39 34 39 42 42 42 41 38 36 34 29 27 28 31 32 39 52 53 62 53 56 50 45 45 45 48 47 43 39 34 31 35 29 23 27 34
77 62 60 60 61 56 51 53 44 45 44 41 39 38 38 40 40 41 38 37 35 36 33 29 26 33 33 32 36 43 51 61 64 63 54 50 50 47 48 33 45 44 30 28 31 25 21 33 36
69 56 58 55 56 50 46 47 46 43 42 40 38 37 35 33 38 40 39 38 34 31 32 29 26 35 32 35 34 34 42 47 52 58 56 60 57 51 53 43 38 34 31 31 30 30 25 36 34
57 56 49 58 51 47 43 46 45 41 42 39 37 37 38 33 34 38 38 34 35 31 30 27 26 33 40 36 38 38 31 32 41 49 54 52 56 53 53 40 37 31 31 28 30 31 28 32 33
54 56 50 55 51 42 36 47 45 39 44 39 37 36 34 31 31 37 35 31 33 29 25 23 22 26 41 40 38 38 34 27 34 42 51 56 59 59 45 44 38 35 35 35 30 38 34 33 35
55 53 50 51 51 38 32 45 44 38 45 40 37 33 30 29 28 36 34 30 32 29 24 24 21 21 33 43 39 44 38 36 23 38 47 54 59 57 39 44 47 47 42 42 38 36 45 37 34
52 52 51 50 47 31 30 45 43 40 44 41 36 32 28 26 25 30 25 28 30 29 25 26 23 22 27 39 45 44 41 38 29 35 39 43 56 55 48 47 49 49 52 50 45 46 45 50 49
52 48 48 47 43 35 36 46 44 44 45 40 33 32 27 24 22 25 25 27 28 29 23 24 23 18 20 29 43 42 44 41 30 38 41 43 58 52 55 46 46 44 50 51 50 52 54 48 51
49 48 43 42 46 41 41 37 44 47 44 39 31 30 29 26 22 23 22 25 25 28 24 23 22 15 16 20 38 43 43 44 32 39 43 43 47 60 51 56 52 49 50 52 52 48 52 51 54
48 41 45 50 52 44 42 38 41 48 44 40 30 31 29 29 23 23 24 21 26 25 25 22 20 17 12 12 24 38 38 49 43 40 47 47 45 51 59 60 56 59 52 48 51 53 53 58 57
47 48 48 48 52 49 40 38 45 49 46 41 29 32 27 29 28 24 23 24 23 23 26 22 20 17 15 12 13 26 35 40 52 46 47 54 51 51 48 55 58 55 52 50 53 52 53 57 58
50 53 51 50 54 42 38 39 44 49 49 42 32 35 30 29 29 27 24 23 23 21 26 27 21 16 15 13 14 20 28 38 48 49 49 52 52 52 53 52 52 51 52 55 57 54 56 60 63
54 55 50 50 51 40 44 42 38 50 50 45 36 37 36 32 28 28 27 24 24 22 25 28 25 20 15 13 13 14 24 32 41 54 56 59 56 55 52 55 54 56 56 54 56 58 58 59 61
48 47 47 48 48 46 44 38 46 45 47 48 41 38 40 38 33 29 30 25 27 26 25 23 25 23 21 14 12 11 14 22 35 47 57 65 62 58 58 57 58 61 61 64 61 61 64 66 67
51 47 47 49 46 49 49 43 39 46 48 49 47 43 43 39 36 33 33 29 28 29 25 23 24 26 24 23 14 12 13 14 19 34 51 60 65 65 62 63 64 67 66 69 69 68 70 72 74
46 50 51 46 47 44 47 48 52 52 50 49 48 43 41 43 42 40 38 36 30 31 29 30 27 27 24 23 23 18 12 12 13 23 26 42 53 59 61 63 68 69 70 72 73 72 72 73 74
50 46 48 46 48 45 47 48 51 52 56 56 52 48 42 42 42 41 41 38 31 32 27 29 31 32 26 26 25 25 19 14 11 11 23 29 33 37 43 47 50 55 61 66 66 64 66 67 66
55 52 52 52 52 48 49 53 51 54 57 54 52 49 48 44 43 47 44 41 35 36 32 31 33 32 30 32 28 24 24 21 16 16 14 14 30 36 35 35 37 41 42 42 44 46 48 51 54

GFSSGP_250_spd_087.txt.gz
Wind_Speed
32 29 32 36 36 39 42 40 40 39 40 43 39 38 39 39 41 46 46 43 46 47 49 52 55 60 62 64 66 67 69 70 68 66 65 65 65 66 67 67 66 66 68 70 71 74 76 77 80
34 32 34 35 36 38 40 39 39 44 41 41 39 39 38 36 40 43 42 42 43 45 49 51 51 52 55 57 57 57 59 59 56 56 58 56 59 61 62 59 58 57 60 63 67 67 68 68 70
35 35 37 37 40 40 37 35 33 37 38 41 37 35 34 37 36 34 40 41 41 41 46 47 45 46 49 51 51 49 46 44 39 40 44 45 45 45 47 44 47 47 51 55 59 61 66 66 66
36 39 42 39 46 39 35 37 36 33 33 39 37 33 34 32 30 35 40 41 39 42 41 45 44 43 46 48 46 42 40 31 24 19 17 16 19 23 30 35 31 34 36 42 47 51 52 52 57
42 42 44 47 42 43 38 34 41 35 31 35 40 36 31 36 38 39 39 36 40 40 43 43 44 45 44 43 40 41 38 28 27 23 20 13 22 30 30 32 38 39 40 40 43 47 44 42 44
46 44 47 49 49 45 42 27 47 39 38 33 38 38 35 39 37 39 39 36 38 40 41 42 41 40 38 33 35 36 37 37 40 29 23 20 34 27 33 33 36 41 44 41 42 43 40 37 35
53 52 53 51 52 54 39 32 43 45 42 37 36 39 35 42 41 38 38 38 40 40 42 41 41 40 35 30 27 27 33 39 42 36 29 42 43 31 35 40 40 37 32 34 38 40 38 34 29
55 53 56 56 59 56 54 46 41 48 40 40 38 38 36 40 43 42 40 40 39 41 42 42 39 39 32 26 21 20 29 44 44 38 35 37 38 40 33 35 30 27 23 21 22 24 27 30 33
62 57 54 64 65 63 62 59 46 50 44 40 40 42 37 40 42 44 40 41 40 42 39 42 40 36 31 22 20 23 41 47 47 46 46 40 43 42 36 40 35 34 29 27 24 23 22 25 24
67 60 60 67 68 64 68 61 53 48 46 47 45 41 40 41 42 45 40 43 37 41 39 40 41 34 31 22 27 31 46 43 48 44 42 43 51 49 46 43 35 31 27 26 23 26 25 26 23
72 66 66 69 72 69 65 67 57 49 48 47 46 41 38 41 42 42 37 43 40 43 42 40 40 35 29 24 30 33 46 47 50 48 39 34 43 58 50 47 35 33 31 28 23 28 28 24 26
74 73 72 70 77 66 61 60 58 46 50 47 47 42 37 39 43 38 38 41 42 41 41 40 37 38 30 25 34 36 48 52 53 49 55 40 39 55 53 52 40 33 31 29 24 20 25 26 29
79 78 75 82 81 81 72 56 56 52 53 41 46 42 39 37 34 39 39 38 39 38 40 40 38 37 31 26 38 44 47 47 58 58 57 60 49 44 58 56 55 37 36 29 26 28 31 29 29
80 83 83 85 82 82 68 50 50 51 48 36 43 40 37 38 37 36 38 38 36 40 38 39 37 35 32 29 31 48 48 51 51 61 59 62 49 45 42 47 47 42 37 35 38 34 36 31 34
84 83 84 80 80 77 68 49 45 54 41 34 40 39 36 37 35 37 41 35 31 42 37 37 36 36 32 31 35 40 49 55 49 55 62 59 52 46 40 38 42 43 39 36 35 33 31 28 30
87 91 89 79 73 68 65 44 48 53 38 33 36 38 37 36 34 37 36 32 28 38 35 36 33 36 30 30 38 39 49 57 59 57 68 62 55 49 47 47 43 43 38 37 37 35 30 31 29
90 91 83 78 66 62 67 47 49 49 35 32 34 35 37 37 34 34 34 28 30 36 36 37 33 32 31 30 38 43 40 53 65 64 68 67 64 60 53 47 49 47 42 39 35 36 33 32 27
92 84 78 71 66 65 63 47 48 45 34 33 33 35 36 38 33 32 31 25 28 33 36 35 31 32 30 31 30 47 47 41 51 62 66 68 69 67 63 54 56 54 44 42 36 40 34 36 33
86 82 71 64 63 63 58 48 43 43 32 31 34 36 35 34 33 30 26 24 26 30 30 33 30 29 30 27 30 37 49 50 53 44 41 54 57 53 64 60 62 51 42 45 41 45 39 41 40
62 66 57 59 56 57 52 46 42 37 30 32 38 36 36 31 29 28 26 23 21 24 29 29 27 27 28 26 28 34 45 49 53 51 45 35 48 46 52 55 56 55 48 52 45 48 43 44 42
58 53 56 53 52 55 49 37 35 30 35 33 36 37 36 31 26 28 26 25 21 20 24 27 26 25 27 24 24 33 37 51 50 53 46 39 36 46 46 48 55 55 40 48 48 51 51 50 47
49 53 57 57 55 48 46 38 28 32 27 28 33 36 34 33 26 29 26 26 23 23 22 23 25 23 24 23 17 24 36 44 47 51 47 38 35 39 40 49 54 55 52 44 47 45 48 49 49
49 54 54 53 51 51 41 41 32 30 27 29 33 32 35 36 27 30 22 24 23 19 18 19 24 23 22 22 21 16 25 36 44 44 50 38 41 47 42 47 50 55 48 54 54 50 52 49 52
51 52 52 54 51 48 40 42 31 29 35 35 31 31 35 37 28 28 23 23 22 21 23 20 23 25 21 19 20 18 16 29 42 41 49 41 43 46 48 45 51 53 55 57 57 54 58 59 57
48 54 54 57 53 38 42 43 35 32 37 36 34 34 38 38 32 30 29 22 24 22 23 21 21 22 23 20 18 18 17 17 27 41 46 45 45 49 49 49 52 54 55 61 61 59 58 58 58
49 55 52 49 45 44 47 40 34 39 36 38 34 36 42 41 35 32 34 26 25 24 25 25 23 24 20 23 21 16 15 16 19 31 40 47 52 53 54 56 54 57 56 53 54 57 61 60 60
48 49 55 54 48 46 41 41 46 40 36 37 35 37 40 42 38 35 38 32 29 27 28 29 27 26 23 24 22 20 17 15 15 18 33 41 52 58 60 57 61 63 61 61 62 63 62 62 64
52 48 50 53 52 45 42 43 46 44 40 39 37 35 39 36 41 40 38 34 31 34 33 31 29 28 28 25 23 21 22 18 16 15 17 29 40 50 60 63 64 64 65 65 64 65 65 66 69
41 43 57 53 49 43 40 43 47 46 43 44 39 37 35 39 38 38 40 40 39 38 34 31 29 33 29 27 25 23 23 23 16 18 16 13 23 34 49 63 67 71 70 69 68 68 69 71 72
42 43 56 53 45 43 44 44 46 49 49 47 44 41 43 42 42 38 40 40 38 36 37 35 37 37 35 30 28 27 25 20 17 22 22 22 19 15 28 40 55 67 69 75 73 72 72 78 78

GFSSGP_250_spd_090.txt.gz
Wind_Speed
33 32 32 35 36 33 30 34 35 38 43 47 46 43 45 46 48 44 39 41 41 44 45 47 47 49 52 53 55 56 58 61 64 63 62 62 63 63 65 67 67 68 68 68 70 73 74 75 75
35 33 35 35 34 32 28 34 37 39 36 36 40 42 41 44 43 40 37 35 39 40 41 44 45 48 48 50 52 54 55 55 55 54 53 53 53 53 54 56 58 60 61 62 62 61 63 65 65
34 36 34 36 38 33 33 31 33 34 35 38 39 37 37 39 35 32 31 32 35 36 38 40 41 45 45 44 46 48 51 52 50 49 45 45 45 45 46 47 47 50 53 55 55 54 56 59 62
35 33 34 38 39 36 34 34 33 38 33 35 39 36 35 35 30 31 35 35 36 36 36 37 38 40 41 41 43 47 48 47 48 45 40 37 34 27 24 27 38 45 47 46 45 47 47 50 53
37 36 35 41 43 40 42 36 34 37 36 34 43 41 32 34 30 30 35 36 38 38 39 40 40 40 39 39 39 38 41 41 39 38 39 31 25 15 16 24 27 33 39 38 34 36 37 37 41
42 39 37 41 47 44 44 37 39 46 46 40 42 40 37 37 34 31 36 38 41 39 40 40 43 43 40 38 37 36 36 35 31 36 36 37 32 19 17 24 25 27 24 33 36 37 36 39 41
44 38 39 45 53 48 43 42 46 51 54 53 47 43 40 40 36 33 35 36 41 43 43 43 44 44 42 37 36 32 33 31 36 39 41 46 41 33 29 29 29 34 36 36 36 37 39 40 38
44 37 43 50 53 59 46 44 48 50 56 59 50 41 42 45 40 38 36 38 40 44 44 43 43 44 40 35 35 31 30 30 39 41 43 45 40 36 34 30 30 37 37 36 34 31 28 25 33
50 45 47 58 57 62 56 52 52 57 58 59 54 42 43 43 43 39 40 39 39 41 42 42 43 43 40 32 32 29 28 30 38 37 44 36 40 43 35 32 39 40 32 22 16 24 21 17 24
54 52 51 61 63 63 63 59 60 57 63 61 53 41 44 43 43 39 39 38 38 36 41 43 46 46 38 30 27 27 26 27 34 38 43 42 38 45 46 38 41 38 37 31 21 24 19 20 22
63 53 59 62 68 67 65 67 65 60 66 60 52 38 42 43 41 39 39 38 40 38 40 43 46 45 39 31 27 24 27 25 33 41 43 44 41 41 41 49 47 41 41 37 36 21 15 21 21
61 58 60 64 69 65 65 62 64 71 69 70 48 41 44 45 38 39 40 36 40 40 40 44 46 46 41 31 27 22 28 30 42 41 42 44 37 40 40 50 49 46 37 37 31 16 19 15 21
63 66 63 64 69 70 69 66 69 72 69 65 49 42 42 41 36 36 38 36 38 40 40 43 45 46 39 31 28 21 30 34 43 45 49 43 37 47 52 54 53 48 42 37 28 23 20 15 24
72 69 69 68 69 75 77 71 67 67 76 68 51 45 40 39 31 34 36 34 37 39 39 40 42 43 36 32 27 23 31 41 37 43 46 45 44 54 58 54 53 54 45 37 37 32 23 24 27
75 73 71 69 72 76 81 74 72 70 73 66 46 46 37 41 29 32 34 32 35 37 35 38 39 40 36 34 29 23 25 46 43 48 51 53 52 56 54 51 44 36 45 44 41 37 33 33 34
70 72 71 69 72 75 80 72 77 76 66 59 49 45 38 39 30 31 30 32 33 35 32 35 39 39 35 33 32 25 24 50 56 47 59 63 58 53 52 47 37 32 27 37 40 41 39 36 32
74 70 71 68 76 79 81 80 78 76 64 56 49 44 40 34 31 30 29 31 33 31 30 35 37 38 35 30 27 27 27 37 58 62 52 66 66 64 56 48 52 41 36 35 34 35 37 32 35
81 79 76 74 78 80 80 78 72 77 63 57 48 43 39 32 32 30 28 28 31 28 30 30 33 35 32 32 28 24 24 36 51 63 64 60 58 64 68 63 54 55 50 41 41 40 39 33 34
83 81 78 73 77 83 81 73 66 65 60 52 45 42 38 30 32 30 27 26 28 25 27 25 29 32 32 31 30 24 24 31 48 51 66 68 66 60 62 66 64 51 51 55 47 44 42 42 39
82 84 78 80 84 80 81 73 64 54 45 44 42 38 34 30 34 32 27 27 28 27 23 24 27 32 32 28 28 27 21 25 42 52 53 63 65 64 61 64 68 67 57 52 50 47 43 47 45
87 89 85 87 82 81 71 66 52 42 40 38 42 40 29 28 35 35 25 27 26 26 24 23 24 26 30 31 27 27 25 19 29 48 55 52 51 57 56 61 65 65 63 59 54 52 46 53 49
84 84 86 88 78 65 60 47 37 35 38 40 40 33 31 29 36 37 27 26 28 27 24 20 19 25 28 31 27 25 27 23 20 34 53 52 48 45 44 46 58 60 59 58 58 54 55 54 53
79 83 83 80 72 56 53 38 33 39 42 44 43 35 33 28 37 38 32 26 30 28 21 21 21 23 23 27 27 25 24 24 25 21 36 53 48 51 49 45 40 50 52 54 54 55 53 50 51
79 80 79 67 54 45 49 29 41 43 36 41 45 35 30 31 40 39 32 29 31 27 21 20 22 22 25 22 24 24 21 22 23 25 27 36 48 48 46 48 42 43 46 48 56 58 58 53 52
74 77 67 56 40 37 42 32 45 48 39 43 44 36 33 30 39 40 36 32 33 28 23 21 21 22 25 21 22 24 21 19 20 21 25 28 37 42 50 47 44 43 46 48 53 60 62 57 55
72 67 56 47 37 35 40 43 50 51 42 42 45 38 32 31 38 41 37 35 36 32 29 24 22 23 26 25 25 25 24 21 19 17 19 28 30 38 43 46 46 44 48 52 53 56 63 61 62
64 65 47 41 38 39 44 53 51 54 42 41 42 41 35 33 37 42 38 37 37 34 32 29 24 24 26 26 28 27 26 26 23 20 17 19 24 30 35 39 47 46 51 50 53 58 61 64 65
55 49 42 38 41 46 51 58 56 49 44 43 43 43 40 37 38 41 42 39 34 36 31 33 29 28 29 23 28 28 28 24 26 23 19 16 16 21 34 41 35 50 53 54 58 58 61 63 66
44 43 39 43 45 51 53 58 56 50 47 40 39 41 40 38 34 38 44 41 40 37 32 31 34 31 31 28 30 30 30 30 23 21 19 21 20 18 17 30 40 41 44 59 62 61 66 67 67
41 43 41 43 48 54 55 56 52 46 46 43 43 38 34 38 35 38 40 41 36 36 35 35 36 34 30 32 31 33 33 32 28 25 26 21 22 22 22 20 20 31 40 45 51 64 69 70 71

GFSSGP_250_spd_093.txt.gz
Wind_Speed
43 42 43 42 41 38 34 35 35 35 36 42 47 50 53 54 52 50 48 47 48 47 46 47 47 48 49 49 51 51 53 55 57 58 58 60 66 67 68 72 73 77 80 79 78 79 79 76 77
41 40 41 40 40 41 33 34 33 33 35 37 41 46 43 47 47 41 41 42 44 41 39 40 42 43 44 44 45 47 48 49 53 57 58 57 56 55 59 62 64 66 66 65 68 68 66 66 67
40 38 38 39 41 39 36 34 30 29 34 33 35 37 40 45 46 43 39 42 35 33 34 34 37 40 40 40 41 43 44 46 49 50 51 52 51 51 51 53 55 57 58 57 57 58 58 57 58
39 40 38 37 38 35 37 35 28 32 37 33 32 38 41 40 41 44 40 39 37 33 32 35 35 38 38 37 38 40 43 43 45 48 47 46 46 46 44 44 43 43 45 46 47 47 48 49 50
41 40 39 40 39 38 40 35 31 35 38 40 40 44 45 45 43 42 43 41 41 38 37 36 34 37 36 38 38 38 41 42 43 44 41 42 39 38 36 32 31 29 29 31 35 41 44 45 45
38 40 36 39 42 42 43 36 35 36 39 42 44 45 47 51 50 43 43 43 41 36 35 38 37 39 38 38 38 38 37 37 38 33 31 37 27 27 31 27 20 14 13 20 21 28 33 32 29
39 36 28 37 47 47 42 31 39 41 44 46 48 48 52 51 53 47 43 42 43 39 35 38 38 40 38 38 37 40 37 36 34 34 36 32 41 37 40 34 27 16 21 22 18 19 25 29 30
42 37 39 47 54 54 45 38 40 46 48 49 54 53 54 54 58 52 42 42 43 40 38 38 38 38 37 37 41 37 33 32 30 33 39 32 37 44 42 38 31 30 25 25 21 23 25 27 26
49 41 37 52 55 56 47 48 48 47 49 52 58 56 51 57 53 53 42 40 40 39 38 39 37 39 39 40 44 35 31 34 35 34 38 32 40 48 45 44 30 24 23 26 25 19 20 19 19
44 39 44 57 56 59 53 51 50 50 52 50 56 55 55 58 50 49 47 39 39 37 37 39 37 39 40 44 42 35 32 33 31 32 38 33 45 50 50 41 32 27 22 26 12 21 23 14 15
49 41 48 53 58 61 59 50 50 52 51 54 54 58 62 61 61 47 52 41 39 36 35 37 39 37 41 42 37 37 29 30 27 28 30 33 48 45 45 36 28 27 34 24 24 29 19 17 16
51 46 51 56 64 62 61 61 57 58 56 60 59 62 63 59 56 50 54 45 40 36 34 36 36 38 40 38 37 34 26 25 24 26 25 26 45 38 42 37 42 38 38 29 21 26 32 26 24
53 54 61 64 67 66 66 64 63 59 63 66 64 62 60 60 58 53 47 47 41 34 32 34 36 39 39 39 39 32 24 22 23 25 22 27 40 38 39 40 44 46 46 38 34 32 33 29 31
66 63 65 68 71 71 67 66 69 65 65 66 63 58 57 58 45 50 46 47 41 32 30 33 36 37 37 41 38 31 25 20 23 27 29 34 36 36 39 42 48 46 44 42 38 39 32 26 26
71 70 70 70 69 71 74 66 67 65 66 62 67 63 62 56 51 50 45 46 41 29 29 33 35 36 37 39 35 28 22 21 25 32 32 39 40 40 42 48 46 53 51 49 43 38 33 35 31
70 71 68 70 73 75 76 57 65 69 67 67 68 67 60 54 51 48 49 45 38 29 27 32 33 33 35 35 33 25 22 21 24 39 38 42 42 48 50 53 50 51 42 42 47 42 39 38 37
66 63 72 76 78 76 73 61 69 75 71 68 63 62 71 57 50 43 51 44 36 28 27 30 32 30 30 34 34 25 22 20 25 42 46 46 49 54 53 59 58 57 53 45 36 29 35 37 37
80 77 72 77 79 81 76 70 69 72 71 67 66 66 69 45 43 40 46 44 34 30 26 28 27 27 28 31 33 29 21 18 25 35 50 52 54 55 60 61 62 61 59 48 36 28 28 29 34
83 79 81 77 82 84 86 78 71 73 67 74 71 70 59 47 47 38 43 42 34 29 26 27 26 26 26 29 34 34 25 20 20 28 55 54 54 60 62 64 65 67 60 59 58 43 39 38 40
81 82 82 78 82 83 84 79 74 69 65 74 76 66 51 49 37 41 44 39 35 29 25 27 25 24 24 27 32 31 29 25 13 23 39 64 59 57 62 63 63 61 58 59 57 56 55 49 44
83 82 80 77 75 80 81 71 67 68 63 67 64 47 44 40 37 41 41 35 37 29 28 28 22 23 21 25 28 30 30 28 19 12 24 49 67 67 63 62 62 63 62 64 61 58 53 51 53
81 84 80 72 73 75 76 63 59 61 63 59 45 40 42 41 40 37 39 36 35 30 31 27 23 25 19 22 26 26 28 27 24 14 12 26 50 68 71 62 65 62 62 57 60 62 61 51 49
82 85 74 69 72 70 68 71 48 58 53 45 38 47 46 44 46 37 41 36 36 33 31 26 24 24 18 19 24 25 28 29 23 23 17 11 26 43 57 60 53 56 52 57 56 57 58 62 58
85 75 74 69 67 60 64 63 42 47 40 43 45 52 47 50 52 41 41 37 37 35 31 28 25 25 17 18 21 23 26 28 28 23 20 19 14 21 35 49 48 47 48 47 44 43 52 54 60
77 72 71 70 67 58 57 49 40 40 41 47 49 54 51 52 54 42 39 42 38 36 32 29 26 27 19 16 19 22 24 26 26 27 23 18 19 16 18 34 43 43 47 48 44 46 48 51 51
71 70 70 65 56 52 49 30 41 45 47 51 53 52 49 47 48 39 42 38 40 37 33 30 29 27 24 18 18 20 23 24 24 26 25 22 20 19 15 27 41 40 42 46 47 50 45 49 53
64 64 64 60 50 51 43 30 50 42 54 55 55 53 49 47 49 38 41 39 41 39 35 34 33 29 28 20 19 21 21 21 23 24 24 21 19 17 13 16 24 36 37 47 50 47 45 47 51
61 60 63 56 47 42 36 33 50 45 57 58 56 51 50 48 46 41 40 41 42 40 38 38 36 29 31 28 23 23 23 21 22 23 21 18 20 19 18 14 13 27 29 35 44 46 44 51 51
60 60 56 51 39 34 34 41 54 49 58 59 56 52 53 50 41 41 44 45 43 41 40 36 38 31 27 31 29 26 25 21 23 23 22 19 16 17 17 15 15 14 18 33 38 42 48 49 53
59 56 54 46 37 36 38 44 62 51 57 51 59 57 54 49 44 38 45 49 46 45 40 38 37 33 30 33 34 28 27 24 24 25 25 24 22 21 15 13 10 10 13 15 17 26 42 48 53

GFSSGP_250_spd_096.txt.gz
Wind_Speed
52 52 49 45 45 45 43 44 44 43 43 43 45 45 44 45 45 45 45 43 45 44 44 43 45 46 47 47 49 47 47 49 50 51 53 57 59 63 65 71 76 80 82 84 83 83 83 84 86
50 46 43 43 44 44 41 41 41 41 38 38 36 40 41 44 44 44 46 47 45 42 39 39 42 42 42 43 45 46 43 41 42 45 48 53 55 54 54 57 62 67 73 74 73 73 75 79 77
45 45 43 43 47 43 40 38 41 39 38 40 39 35 40 41 42 43 44 44 44 43 43 41 41 44 42 42 41 41 41 38 39 42 46 48 50 48 48 51 51 54 57 63 65 64 61 62 66
47 44 42 45 45 43 40 40 39 37 37 36 37 36 38 42 43 44 44 45 46 49 48 44 45 44 43 40 40 39 40 39 38 41 43 43 39 37 41 41 44 44 45 48 48 49 50 53 56
46 44 41 43 46 46 41 39 37 34 36 37 36 38 39 43 46 48 49 44 46 49 49 44 45 46 43 41 39 37 37 34 35 37 37 35 28 20 30 37 34 34 36 38 41 45 47 46 46
45 44 41 40 45 44 42 40 34 34 36 37 38 40 44 45 48 53 52 46 44 48 49 47 45 44 44 44 41 37 35 30 35 34 34 34 29 35 33 34 25 27 24 23 26 25 30 36 35
48 47 42 41 46 47 46 34 30 33 35 37 41 43 46 47 50 53 51 50 51 50 47 45 45 44 44 41 39 35 34 32 30 31 34 33 29 38 43 37 35 34 26 21 16 14 13 17 19
51 45 41 39 49 51 51 38 36 37 38 39 42 46 46 49 51 51 52 52 55 49 45 43 44 45 42 40 39 36 35 34 34 30 29 31 29 33 43 42 46 40 28 27 19 19 17 15 16
49 42 41 46 55 58 54 45 38 36 37 41 44 47 49 48 53 55 55 57 60 51 42 40 43 43 40 39 38 36 35 33 36 28 31 34 33 32 39 46 42 39 32 30 21 19 19 12 13
48 45 44 53 55 55 51 47 42 38 37 42 44 46 51 52 55 54 58 59 58 51 43 39 42 44 39 39 36 36 34 33 31 30 37 36 34 34 42 44 46 40 36 32 22 14 14 12 11
50 45 50 51 56 55 51 48 44 42 43 46 47 52 55 57 57 57 55 55 58 52 40 39 40 43 38 38 36 36 33 35 30 26 31 32 29 30 43 48 49 47 37 30 18 19 22 18 16
49 47 47 53 58 55 55 52 45 47 50 54 54 56 58 58 60 57 55 53 57 55 38 36 38 40 36 36 36 37 33 34 28 25 27 30 24 28 50 52 52 45 40 34 20 27 24 22 19
50 53 56 57 60 57 56 52 52 52 58 58 59 60 59 59 58 57 53 54 54 53 42 35 36 36 32 33 35 35 33 30 26 24 24 25 19 23 39 48 43 44 35 27 27 22 21 20 24
61 60 61 59 59 60 60 57 58 58 62 61 62 59 59 56 55 54 57 53 54 53 44 36 36 34 28 31 33 33 32 28 23 22 25 24 18 19 38 38 45 42 31 34 32 28 26 25 25
63 64 63 63 64 65 67 57 63 65 68 65 63 60 60 56 54 56 52 55 57 52 46 35 35 31 26 28 31 32 33 27 22 22 27 27 25 25 40 34 40 46 42 47 42 38 35 35 32
72 72 69 66 69 67 70 52 64 66 69 67 64 63 60 58 56 57 53 57 58 51 44 33 34 29 25 28 30 29 29 29 22 21 29 32 30 32 38 36 37 37 42 45 45 43 40 38 35
74 70 68 68 70 68 64 46 56 65 67 67 67 66 64 61 61 57 54 57 53 47 39 32 33 28 23 25 28 27 29 31 21 21 27 37 35 36 37 45 40 43 44 46 45 49 47 46 42
79 78 74 71 71 74 70 62 64 68 66 66 69 71 70 69 61 58 52 55 49 46 35 31 33 26 23 25 26 26 29 29 20 21 28 42 43 44 41 46 48 53 52 48 45 46 46 44 44
83 78 76 74 75 75 75 68 69 69 73 71 72 71 70 67 62 62 57 60 48 46 35 32 31 25 22 24 22 22 25 29 17 17 30 45 49 46 49 52 53 55 53 52 52 45 44 34 33
87 83 83 83 84 82 81 73 70 71 73 71 71 72 68 64 63 57 58 54 48 44 35 34 30 25 21 25 20 20 23 25 20 15 24 39 54 52 52 53 56 60 62 63 56 54 46 40 37
90 91 89 89 89 89 88 79 73 73 74 69 62 63 64 63 58 57 58 54 47 39 35 35 31 25 22 22 17 17 22 21 23 17 9 30 56 59 55 56 57 59 63 60 62 60 63 62 57
88 89 89 88 89 84 84 76 72 70 73 65 63 62 63 63 56 56 49 46 47 38 37 36 32 25 25 20 15 15 18 21 21 21 13 9 31 60 64 61 59 62 60 62 62 65 61 61 59
87 88 87 90 82 74 66 77 61 71 65 67 66 63 61 58 55 52 45 48 46 34 39 37 33 28 26 19 17 14 16 18 19 21 20 13 7 30 61 67 67 63 62 66 61 61 61 65 61
87 86 81 75 70 63 71 72 59 64 60 64 66 60 56 58 52 43 43 52 40 41 40 39 36 29 27 22 18 14 14 16 16 16 17 17 12 5 22 58 66 68 68 67 65 64 60 56 57
78 75 75 72 71 70 78 70 61 57 62 57 64 48 54 45 38 43 48 55 46 47 39 39 37 31 28 24 20 16 13 15 15 15 16 18 12 10 5 16 36 62 67 58 59 53 50 50 49
75 71 72 72 75 79 72 62 51 59 61 52 51 50 43 34 39 44 55 52 46 46 37 41 38 33 28 26 23 19 15 15 15 15 16 17 16 12 11 5 10 20 30 47 51 45 45 47 47
80 81 80 78 73 68 58 51 43 52 50 48 38 44 37 35 41 51 58 56 47 48 38 42 38 35 29 27 28 24 18 19 17 15 16 15 15 13 12 11 6 11 22 26 35 40 39 42 46
75 72 69 65 61 51 46 45 43 48 46 40 39 40 39 40 47 57 60 56 50 50 37 41 40 37 31 30 28 29 24 24 20 18 17 16 15 12 13 10 7 7 11 18 24 28 34 40 42
64 61 60 57 52 44 39 37 46 42 46 34 38 43 42 47 51 54 58 56 52 46 36 40 40 39 33 31 32 31 32 29 23 20 19 17 16 18 18 17 11 6 6 13 22 26 28 31 36
59 56 54 51 48 39 35 37 44 40 43 36 44 46 46 50 51 55 58 54 51 49 39 38 39 37 35 36 35 33 32 32 29 23 23 22 20 20 21 18 13 11 9 10 14 18 23 26 29

GFSSGP_250_spd_099.txt.gz
Wind_Speed
55 57 57 55 54 53 51 42 45 48 48 46 49 48 49 46 46 46 45 42 39 40 42 43 38 36 37 37 36 39 41 43 46 47 49 51 54 55 55 57 59 62 64 69 76 84 87 85 85
57 54 54 53 48 49 46 42 45 44 44 44 45 45 46 45 45 46 42 41 40 40 43 40 44 41 40 39 39 40 42 43 43 45 46 48 50 51 51 51 52 54 56 57 61 65 72 76 81
57 52 49 49 46 47 45 43 42 43 44 43 44 46 45 46 42 41 42 41 42 42 43 45 41 42 42 40 39 40 41 41 42 44 45 46 47 46 44 41 42 44 43 45 48 52 56 60 64
59 52 49 42 48 49 47 44 44 44 43 43 42 45 44 45 43 44 43 43 44 43 43 44 41 41 41 41 41 40 41 40 42 40 41 42 42 40 25 19 23 31 40 41 43 44 46 48 52
59 53 46 44 51 50 46 43 43 42 42 44 42 45 42 43 42 42 43 44 47 46 46 45 45 42 41 39 38 41 40 40 40 37 33 35 30 29 28 18 19 28 31 28 31 38 41 43 44
59 54 47 46 52 51 48 44 44 41 41 41 40 42 39 41 45 44 44 44 46 46 48 49 45 44 43 40 37 40 40 37 36 32 32 36 32 36 41 35 32 29 27 30 25 29 33 37 42
58 51 49 47 53 52 52 48 42 38 40 38 36 37 41 41 45 46 46 46 46 49 48 50 49 45 42 41 37 39 40 37 35 31 32 34 33 35 36 45 46 34 36 35 32 18 25 25 30
55 49 48 47 56 57 57 53 42 40 39 34 39 39 41 43 46 48 47 46 49 51 51 53 52 47 42 39 37 36 39 36 34 30 31 32 31 28 32 44 50 42 40 39 34 28 20 15 16
58 48 45 53 61 63 58 53 44 39 42 41 38 42 41 44 45 48 45 48 51 51 51 51 50 48 40 38 37 35 36 34 34 30 30 33 33 31 29 35 45 46 44 42 38 31 24 21 17
53 46 48 59 65 64 57 53 48 42 43 43 43 44 42 45 46 48 52 52 54 54 52 49 51 48 35 37 37 35 35 33 32 31 35 33 35 38 35 32 40 48 46 42 41 34 28 24 18
53 49 55 61 66 61 56 52 50 44 43 47 48 46 48 48 51 51 57 55 54 52 50 46 49 43 36 32 36 33 34 31 32 32 34 33 36 34 35 33 38 47 51 46 44 36 28 24 18
56 52 55 59 64 59 55 55 51 48 47 47 50 52 53 53 52 54 57 58 54 51 48 50 50 47 34 31 34 33 33 29 29 32 34 32 33 31 31 34 45 51 54 47 44 35 31 26 25
61 55 57 60 63 59 56 53 51 47 49 52 55 57 56 53 54 55 57 60 53 52 49 49 46 48 35 31 31 32 31 28 28 33 33 30 30 29 29 33 40 56 53 49 44 36 36 28 25
63 59 57 65 61 61 55 54 50 48 58 57 57 56 54 53 55 56 57 59 55 54 50 48 49 48 36 28 31 32 30 27 28 30 31 27 29 26 28 29 39 48 57 47 44 41 32 27 31
63 62 59 65 64 62 62 54 53 57 62 61 60 58 57 58 58 59 58 58 56 56 52 49 50 46 34 27 30 30 28 26 28 29 27 24 29 28 23 27 36 45 53 46 38 36 33 30 29
69 67 65 66 70 68 68 49 62 65 64 63 64 62 57 55 51 54 57 60 60 56 54 55 49 47 34 26 30 28 27 25 28 23 26 23 33 30 25 29 35 45 51 45 38 35 39 35 30
68 69 70 70 73 77 76 64 65 66 65 65 62 62 54 52 54 55 56 59 61 60 55 52 49 49 33 27 29 27 25 24 23 24 24 25 34 34 31 32 37 39 44 47 36 43 44 40 39
78 75 73 71 74 73 71 67 67 70 69 64 65 63 61 59 58 61 62 62 62 61 55 50 50 46 33 28 28 24 24 24 21 27 24 26 36 41 34 34 44 39 44 49 45 45 47 43 41
84 79 75 73 75 74 68 63 66 66 66 67 67 70 68 65 65 63 64 62 61 62 54 51 48 41 33 28 28 23 24 23 19 25 22 23 33 47 39 38 42 42 43 46 47 51 47 48 44
86 85 83 80 80 76 72 66 68 66 68 70 68 72 71 71 71 69 71 63 58 59 56 53 46 40 34 30 28 22 23 21 17 23 18 19 29 49 45 45 44 50 49 48 50 50 52 48 47
92 88 87 86 86 84 80 71 72 74 74 78 77 74 76 75 75 75 71 58 54 58 57 51 49 41 36 32 28 21 20 19 16 16 17 14 23 50 52 47 50 52 57 55 55 57 54 53 53
98 94 90 87 85 85 85 75 77 79 83 84 84 84 82 75 70 70 63 49 55 59 56 48 46 40 35 34 29 24 20 17 14 13 14 10 13 37 55 52 51 54 58 58 64 62 63 60 54
96 97 95 92 90 87 82 83 75 79 88 88 86 81 72 64 63 62 56 55 58 58 50 44 39 40 36 36 30 24 22 16 12 12 10 11 6 15 53 59 56 59 53 64 70 67 60 60 60
101 102 98 98 96 91 88 86 76 81 88 83 79 77 64 64 59 54 55 59 61 56 47 37 42 41 39 38 31 26 23 16 12 11 9 9 8 4 18 60 63 64 67 66 67 67 68 64 63
98 97 94 94 93 92 89 83 79 84 83 79 70 65 65 62 54 54 58 63 58 51 42 45 46 44 42 41 34 29 26 18 12 10 11 9 10 8 5 24 51 68 70 70 67 65 64 66 68
86 88 89 84 83 80 81 81 78 72 64 59 62 67 63 53 52 58 60 54 51 43 40 50 46 44 43 42 36 32 28 22 15 11 12 11 11 11 9 6 19 37 68 73 70 68 70 67 63
70 70 70 72 72 70 68 64 56 56 59 63 68 62 52 51 54 58 54 47 43 38 46 52 48 43 44 43 37 34 29 26 20 14 12 14 11 12 12 11 8 11 26 46 65 70 70 69 64
65 65 66 65 62 62 63 61 61 62 65 60 54 48 47 50 53 55 47 42 41 42 44 49 48 42 43 42 38 35 31 29 26 20 17 16 14 13 12 15 13 12 10 20 27 39 51 45 45
61 62 64 65 64 63 63 64 64 60 52 48 47 44 42 49 51 47 40 40 42 42 44 49 46 43 42 41 39 37 34 31 30 28 25 23 19 16 15 14 17 16 13 10 20 27 33 37 38
63 63 63 61 58 56 53 47 45 42 41 42 44 40 41 43 40 38 38 44 44 44 42 46 47 45 43 40 42 42 38 32 28 29 32 28 26 20 20 20 16 15 15 15 15 14 16 20 26

GFSSGP_250_spd_102.txt.gz
Wind_Speed
62 61 57 56 54 52 53 52 52 52 50 50 46 47 49 47 47 48 49 48 47 45 45 44 42 44 42 39 38 36 35 34 36 35 37 39 43 48 53 54 55 56 55 57 59 63 66 69 73
60 59 57 53 50 53 52 49 49 48 48 48 46 45 48 46 47 46 46 47 47 44 44 43 41 38 40 42 41 39 39 37 35 35 36 38 40 43 42 42 43 45 47 49 49 50 54 58 60
59 57 53 49 53 53 53 50 48 48 48 47 46 46 49 48 48 46 46 48 45 46 44 44 43 42 40 40 41 42 41 41 38 36 36 39 40 38 35 32 32 32 33 33 37 46 45 46 49
62 61 56 51 55 57 54 55 50 47 48 49 47 49 50 50 48 46 47 47 44 44 46 43 43 40 42 41 41 42 43 41 38 37 37 36 36 32 26 23 22 26 24 23 25 36 41 41 41
68 64 61 58 58 60 57 54 48 49 51 51 48 49 49 51 50 48 46 43 44 46 45 43 43 44 42 42 41 39 41 40 39 35 35 33 30 30 26 28 22 29 29 21 18 23 29 35 38
70 69 63 58 60 59 57 53 51 52 52 51 47 48 50 50 49 48 47 46 44 42 43 44 46 48 46 46 44 42 41 39 39 35 32 31 38 36 31 36 33 35 34 27 22 20 20 22 31
71 69 62 60 61 61 61 56 56 54 52 49 48 48 49 48 48 48 45 44 42 41 40 41 47 51 50 50 46 44 41 39 38 35 33 34 38 40 39 37 42 41 38 32 29 32 24 25 24
71 70 67 61 64 65 63 60 59 55 52 49 48 47 49 47 47 48 44 47 43 41 42 43 50 53 52 51 47 46 41 38 37 35 33 31 36 35 38 39 46 48 44 34 32 36 33 28 36
76 72 65 58 62 65 66 63 58 55 51 50 49 49 50 48 44 44 46 46 45 43 43 45 50 52 50 47 45 42 40 37 35 33 34 31 33 38 35 41 41 48 43 41 37 40 42 43 28
67 66 60 60 63 69 69 61 57 57 53 51 53 52 51 53 47 47 51 52 51 46 47 49 48 50 48 45 44 43 38 37 34 31 34 33 35 37 36 38 38 39 45 50 43 44 45 35 30
66 59 63 56 63 67 69 62 57 56 55 55 54 53 51 52 52 51 56 55 53 48 50 50 47 46 48 44 42 43 39 33 31 28 32 35 37 39 40 36 43 38 39 55 48 46 45 40 32
67 61 61 61 63 65 65 60 54 57 58 58 56 55 55 55 52 54 55 57 55 52 51 52 46 47 48 45 43 46 39 35 29 29 32 35 37 38 39 37 35 44 40 53 50 46 53 41 35
63 62 57 55 61 63 63 58 59 58 59 59 56 56 55 51 53 55 57 59 59 55 54 54 48 47 48 46 47 47 38 36 29 29 33 33 37 38 37 33 32 36 39 50 55 52 46 41 33
66 63 58 56 56 64 64 62 60 59 62 60 56 56 55 55 56 58 57 60 58 57 57 54 46 48 49 48 47 47 38 36 29 31 31 31 37 37 35 31 32 31 40 48 55 54 49 41 36
71 68 65 60 60 64 67 63 61 65 65 63 59 55 53 52 58 57 57 58 58 55 53 50 44 47 51 51 50 46 41 35 30 32 29 31 36 34 32 29 28 29 39 50 55 56 48 41 39
72 72 68 66 64 66 70 59 63 68 67 63 55 52 53 57 57 56 56 56 53 54 49 51 51 49 54 54 51 45 42 35 31 31 27 30 33 31 32 28 26 31 41 52 56 55 48 44 45
75 72 72 69 68 69 67 62 67 65 67 61 58 61 62 63 60 55 54 56 56 58 55 55 55 52 53 53 50 45 40 35 32 28 26 31 31 29 31 31 27 30 32 43 57 53 52 48 44
82 79 79 77 73 71 70 67 65 66 71 72 70 70 72 66 61 61 61 58 59 59 61 59 58 58 58 53 50 45 39 35 32 25 24 28 28 29 31 36 29 32 31 34 52 50 44 45 47
96 89 84 80 74 73 70 71 71 71 71 72 72 71 70 70 68 65 59 61 60 61 63 65 66 62 58 52 47 43 39 35 32 24 23 26 27 26 32 40 31 32 33 35 45 49 43 43 41
101 92 88 85 81 76 73 71 74 74 73 74 73 72 72 69 67 66 66 66 65 61 63 67 67 63 54 49 47 42 42 36 31 24 21 23 24 24 32 45 37 38 35 38 42 48 47 48 44
103 98 91 87 84 80 77 73 74 72 74 75 74 70 69 68 65 62 65 66 68 68 70 71 66 58 52 48 44 40 42 37 28 23 22 21 22 24 31 46 44 41 39 41 46 49 50 43 48
104 104 97 91 85 83 77 79 78 80 79 78 76 74 73 73 72 72 73 74 72 73 74 68 64 54 52 49 46 42 42 36 25 22 20 18 18 21 25 47 49 43 45 44 48 53 50 50 54
101 103 101 97 90 84 83 80 80 81 85 82 79 80 79 78 75 75 77 78 78 79 71 67 65 57 53 53 43 41 43 35 26 21 19 16 14 15 16 42 51 48 51 50 54 54 57 54 53
97 100 102 99 95 89 89 88 86 86 87 83 83 83 82 81 80 79 80 77 78 72 70 70 66 56 54 49 40 45 43 34 28 22 17 16 16 11 13 17 50 54 50 57 58 60 60 59 60
98 97 99 100 98 94 90 91 91 90 89 90 87 86 85 84 82 83 84 82 76 70 70 69 64 58 52 46 44 48 44 34 31 23 16 14 14 11 6 10 25 60 55 57 65 64 67 69 69
94 95 92 95 94 92 92 92 92 93 91 90 90 89 90 89 86 84 78 73 71 71 69 66 63 56 50 41 51 49 45 36 32 26 20 16 13 12 8 5 9 24 48 66 66 68 71 74 72
87 90 89 89 92 93 94 94 94 92 90 89 88 87 85 86 89 90 81 67 70 72 66 62 58 50 46 45 51 51 45 37 35 30 25 20 17 15 13 10 7 10 23 40 57 72 69 67 71
71 76 81 86 87 87 87 89 89 88 86 84 83 80 75 75 71 67 66 71 72 66 59 54 47 47 43 53 51 51 46 41 37 34 30 23 20 19 17 14 11 12 12 15 28 46 69 65 78
58 60 63 65 66 67 67 68 66 64 64 62 58 57 57 58 60 65 66 65 58 51 50 44 41 43 49 54 51 51 47 43 40 38 35 31 25 23 22 19 17 18 16 14 14 21 30 39 51
49 48 47 47 48 48 48 52 52 48 49 51 52 53 59 63 60 57 54 54 46 45 41 37 42 47 52 53 50 50 47 46 42 40 39 37 33 30 26 23 22 21 20 19 16 16 19 31 35

GFSSGP_250_spd_105.txt.gz
Wind_Speed
66 64 65 64 63 58 56 58 60 58 54 53 52 52 52 55 52 49 48 49 49 49 50 49 47 47 46 45 46 43 43 42 40 40 38 39 39 40 40 37 39 41 43 47 50 51 52 55 57
64 65 64 65 62 57 57 59 55 54 49 50 51 50 50 52 51 48 46 46 46 46 46 48 46 46 45 48 45 43 42 42 41 42 41 39 39 36 33 32 32 33 34 35 38 41 45 50 51
66 68 66 63 58 55 57 55 52 53 50 52 51 52 52 52 51 48 46 44 46 44 45 46 47 46 47 48 44 43 43 43 43 43 42 39 37 33 32 32 30 24 25 23 26 27 30 39 45
70 70 67 63 60 61 61 60 52 54 51 51 52 54 55 50 50 50 47 44 45 44 46 47 46 46 48 48 44 46 44 44 44 45 43 38 34 30 34 33 30 25 24 22 19 19 26 31 35
74 72 68 63 61 64 63 63 57 57 55 52 53 55 57 51 51 51 50 45 43 43 47 47 47 47 46 46 45 47 48 47 45 43 40 35 32 32 28 27 28 26 27 28 26 22 21 25 25
78 75 71 67 65 70 70 65 62 60 56 54 53 56 60 54 53 52 50 48 43 43 47 46 46 46 46 46 46 49 47 47 44 42 41 37 36 37 34 34 30 33 30 35 33 28 17 14 19
79 78 74 72 71 72 72 69 65 63 60 58 54 58 60 56 52 54 51 49 45 44 46 47 45 45 47 47 48 47 46 48 46 42 37 39 39 37 36 36 35 34 38 38 40 34 36 22 24
82 79 74 71 70 68 73 67 66 65 62 58 60 59 62 53 57 55 53 49 46 44 47 47 45 47 50 49 49 47 47 47 44 40 38 38 38 36 35 36 34 33 35 45 44 41 30 29 31
78 74 72 72 74 77 77 70 72 65 62 58 59 61 57 59 57 55 55 51 45 44 43 46 48 51 54 51 47 46 47 44 45 42 39 38 37 34 33 35 36 37 36 42 49 46 37 37 35
72 68 62 72 77 79 76 75 73 66 63 59 61 59 62 59 58 55 57 54 49 50 49 49 50 54 55 51 50 49 49 47 47 42 37 36 36 33 33 36 37 37 37 38 46 49 42 39 35
75 65 70 66 67 66 72 74 70 65 62 60 58 59 60 62 59 57 58 57 54 54 55 53 52 54 57 54 53 51 48 45 43 43 35 36 33 31 33 36 39 40 38 41 46 50 46 45 45
79 73 73 70 67 63 67 68 64 60 62 64 60 58 61 62 61 57 56 57 53 53 56 53 53 55 57 55 54 53 50 43 46 44 37 35 35 35 35 37 38 36 34 39 44 50 46 47 48
80 78 76 71 68 63 72 65 65 60 57 58 61 60 60 62 62 57 56 58 54 56 57 54 54 54 56 57 57 53 47 47 47 44 39 35 34 35 37 40 39 36 33 37 43 47 48 45 48
87 85 80 77 69 68 67 63 62 60 61 57 62 55 57 61 60 58 56 54 57 56 57 55 57 57 55 58 53 49 52 47 47 44 41 36 34 35 39 39 36 32 31 33 44 42 47 45 47
91 87 84 79 75 68 69 60 58 60 61 60 62 56 57 62 59 55 55 55 50 55 57 59 57 58 54 54 54 51 48 53 51 45 41 36 34 35 39 39 34 31 29 34 37 45 47 44 43
93 91 84 81 81 72 72 57 64 62 59 58 62 59 57 59 60 58 59 54 54 57 61 59 58 57 58 54 55 52 53 52 51 45 41 36 34 36 39 37 37 32 29 31 39 41 49 51 48
96 88 85 87 85 79 71 65 67 67 61 58 61 62 59 57 63 65 62 59 59 61 63 58 59 60 58 55 57 53 58 53 53 45 40 36 34 36 37 36 36 32 29 29 33 42 50 53 53
94 95 91 85 87 84 74 73 68 69 66 62 64 62 61 61 67 65 61 60 62 65 65 61 61 61 58 59 61 58 63 60 52 45 40 36 33 34 34 37 38 31 29 26 29 38 52 51 55
107 103 98 90 88 89 81 74 74 70 67 65 65 63 64 65 68 68 66 65 66 69 65 64 62 60 60 61 62 63 66 61 48 43 38 37 33 33 33 36 32 27 29 28 32 31 48 51 54
110 107 97 94 93 85 86 77 73 73 70 68 70 68 66 66 69 72 74 74 73 65 63 64 64 63 62 61 64 65 66 62 47 42 37 37 32 31 32 34 29 27 33 31 27 28 41 51 52
102 104 101 98 96 87 84 82 77 79 75 72 72 74 72 70 70 72 75 74 67 63 60 58 61 63 63 66 69 69 70 62 48 40 36 35 31 27 31 33 26 29 34 33 27 28 32 47 51
94 96 97 97 93 89 89 86 88 80 79 79 76 74 75 76 73 71 70 70 68 66 67 67 67 72 72 71 72 74 67 64 48 44 37 33 29 24 29 28 27 27 40 36 30 29 37 49 51
86 94 93 87 87 90 89 87 91 86 84 83 81 77 75 76 76 74 72 71 71 70 70 72 73 75 74 76 75 75 70 62 51 43 37 32 26 22 25 24 24 26 42 38 36 35 40 42 51
76 83 88 91 91 88 87 88 92 96 89 85 84 83 80 79 78 77 74 74 74 75 76 77 79 80 77 75 77 72 71 58 51 40 37 32 24 23 23 23 23 25 45 42 43 42 44 48 52
64 69 77 85 88 86 94 91 91 97 89 88 85 83 80 79 77 75 76 77 78 80 80 79 79 82 80 80 73 71 64 55 49 38 38 34 24 22 20 18 20 18 49 49 47 49 44 50 53
59 63 64 77 83 88 90 91 97 92 95 91 89 88 87 85 83 81 81 82 84 86 82 80 83 85 86 79 75 72 59 50 46 41 41 35 26 21 19 17 17 18 31 56 50 51 55 53 56
54 57 61 67 77 88 85 93 91 91 91 92 91 90 88 87 87 86 85 85 86 86 84 84 84 83 83 72 76 64 56 46 43 46 44 36 31 24 18 16 16 17 15 43 60 56 55 59 61
53 59 62 65 69 79 85 87 86 87 87 89 88 91 89 89 90 88 86 86 87 86 86 81 79 77 72 73 64 59 49 46 45 50 46 40 35 28 24 18 13 10 12 16 28 57 64 60 60
50 55 55 56 59 65 74 79 84 85 85 85 87 85 88 85 87 90 91 91 90 85 83 81 78 72 68 64 56 51 44 47 50 51 48 42 38 33 27 21 17 14 13 14 15 19 30 51 68
48 50 52 56 59 62 67 74 82 84 83 82 80 83 84 84 87 85 81 75 72 72 67 69 71 65 57 48 47 46 43 49 54 51 48 45 41 36 31 26 22 22 22 20 20 19 20 23 30

GFSSGP_250_spd_108.txt.gz
Wind_Speed
68 67 67 68 67 64 63 62 63 63 58 57 62 59 59 56 52 53 51 51 48 50 49 47 46 44 45 45 45 43 41 42 41 42 41 41 41 39 41 39 38 39 40 40 42 39 41 47 49
67 68 69 67 63 63 60 62 66 65 55 52 57 55 56 54 50 52 49 48 47 47 48 45 44 43 44 45 44 43 43 42 41 40 41 41 42 40 37 37 37 36 35 36 37 37 35 33 33
60 57 60 61 59 59 61 67 67 63 48 53 53 55 55 56 49 50 51 48 44 45 46 45 44 44 43 44 43 43 42 42 44 45 42 41 42 40 39 36 36 34 34 34 33 32 33 32 28
74 74 69 66 64 64 65 72 69 62 51 56 56 56 55 54 53 48 53 51 46 45 47 46 44 45 44 44 43 40 42 44 46 46 41 41 41 37 36 36 35 35 34 32 30 32 32 29 28
79 77 73 69 68 68 67 73 67 63 55 54 56 60 58 55 53 50 53 54 51 49 48 46 45 45 45 45 43 40 43 45 49 49 48 46 42 38 35 35 35 34 27 28 29 31 33 32 28
79 80 75 71 73 70 71 73 72 64 62 56 60 60 60 57 54 50 52 56 54 52 50 47 47 45 45 45 42 42 45 48 49 49 48 47 45 37 36 35 35 35 33 27 29 32 32 29 28
78 78 74 73 70 71 74 78 71 63 66 62 64 64 66 62 57 48 57 57 55 54 50 48 48 49 46 46 42 42 47 48 50 49 49 50 47 39 36 36 36 37 37 33 33 36 36 29 28
76 79 75 72 74 76 78 80 73 67 68 69 62 62 66 60 48 56 56 59 59 54 49 48 51 50 49 48 45 44 49 50 52 53 50 47 47 38 34 33 36 36 34 30 34 37 35 38 34
76 75 69 72 78 76 79 78 75 69 70 67 58 59 61 60 56 59 54 60 60 54 48 48 50 50 52 53 50 49 50 50 49 50 51 43 45 37 32 32 34 35 33 27 30 37 39 44 43
80 75 63 70 72 70 70 75 67 66 76 69 66 65 67 63 60 57 58 62 61 55 49 47 49 54 56 58 52 52 53 52 51 53 46 44 44 38 32 31 34 37 32 29 32 37 37 42 48
81 72 74 76 77 73 68 65 56 65 63 69 69 65 60 60 61 58 61 60 63 56 51 48 50 54 56 55 55 58 57 54 51 48 44 42 41 38 33 33 33 35 33 33 34 38 37 39 46
91 74 79 78 81 80 73 68 60 63 54 57 55 52 59 63 58 58 59 57 61 57 53 50 50 52 55 56 58 58 56 53 52 51 49 46 43 39 34 34 36 37 36 35 35 40 36 46 43
88 80 84 81 85 83 78 69 66 61 56 55 55 52 50 58 55 60 59 60 58 58 57 51 50 55 57 55 59 56 53 51 54 54 49 50 41 40 34 34 37 40 37 35 39 41 39 43 49
90 91 87 84 82 82 81 73 71 67 63 58 58 58 54 51 57 59 60 61 62 61 57 52 50 54 56 56 56 57 55 52 54 53 49 47 46 40 34 34 35 39 39 39 35 38 38 37 47
98 99 91 86 80 79 83 75 70 73 70 62 56 54 52 50 50 54 56 56 62 64 59 50 54 52 52 55 54 55 55 55 57 55 53 55 51 41 35 33 34 39 42 37 31 33 34 37 40
109 105 100 81 84 83 86 66 74 79 75 68 60 55 51 49 53 55 58 58 59 64 62 47 56 53 51 52 53 57 58 59 58 57 56 57 59 41 37 33 33 38 40 35 30 30 30 38 34
105 102 96 89 91 90 89 68 76 80 78 70 64 56 52 50 47 53 58 58 61 63 64 51 53 57 54 52 56 59 59 60 59 57 57 59 61 44 37 32 33 38 39 36 33 30 31 34 38
92 99 101 95 93 92 89 78 79 78 78 74 67 57 55 54 54 51 56 60 59 60 62 59 52 58 57 57 59 61 61 62 59 56 59 61 58 46 38 33 35 37 40 35 31 30 31 37 44
101 104 103 98 98 95 91 86 85 76 78 76 70 63 60 57 56 55 56 57 59 53 61 60 52 58 60 61 63 61 59 59 53 57 62 63 59 49 42 34 35 38 38 31 29 31 30 37 44
100 99 97 97 99 102 99 89 88 78 72 73 74 67 67 63 59 58 57 58 59 58 59 60 58 60 67 67 64 55 53 56 60 63 63 62 61 47 42 34 36 39 37 29 30 30 27 34 47
90 93 91 90 99 107 99 90 83 75 75 78 76 73 70 68 63 60 60 61 60 62 65 65 66 65 64 67 65 60 59 66 63 64 65 63 57 44 42 35 35 38 35 31 30 28 30 34 41
79 83 88 94 100 101 93 91 86 84 83 80 77 77 75 67 67 63 60 61 64 65 65 65 66 66 61 65 65 65 63 63 65 66 65 60 55 43 42 34 36 38 33 28 32 30 29 25 31
65 79 88 93 94 92 91 86 84 91 84 83 78 72 74 74 72 71 65 61 62 65 66 66 60 59 60 64 69 66 64 67 70 66 67 59 57 42 41 33 35 34 31 23 35 33 32 24 25
61 73 73 80 89 91 83 81 85 92 89 88 80 78 79 79 74 71 71 70 69 69 69 71 72 69 69 64 72 70 70 70 68 68 69 61 56 41 37 33 33 32 29 23 38 40 34 31 31
52 58 66 73 78 72 78 81 81 90 91 86 81 85 83 78 77 77 77 76 72 72 73 73 73 72 71 70 75 74 73 74 70 67 67 61 50 39 35 33 29 29 25 23 36 43 37 36 37
45 49 54 55 57 64 78 84 82 88 89 85 82 82 81 80 77 81 79 75 72 72 73 74 75 73 70 75 75 80 74 75 70 66 61 59 43 36 35 34 27 26 26 22 24 43 42 38 40
40 35 40 42 43 50 59 69 75 83 83 81 82 82 80 80 82 81 82 78 75 76 76 77 76 77 75 78 78 80 74 73 66 61 56 49 41 36 37 34 25 23 21 19 16 47 49 44 43
35 38 35 34 33 43 51 54 54 53 67 77 75 80 82 83 83 81 81 81 80 81 83 84 84 84 83 82 84 82 79 73 67 58 56 43 41 40 41 35 25 20 15 13 16 16 49 51 51
36 32 32 42 42 37 52 58 62 67 73 78 80 81 81 81 80 82 80 80 82 82 82 83 84 85 82 81 84 81 75 68 58 57 50 38 41 45 44 38 30 24 19 15 14 12 13 29 54
33 34 38 47 47 47 45 51 69 78 80 82 77 79 76 77 78 78 77 78 79 80 80 81 77 77 82 86 83 74 60 58 55 52 40 41 43 49 46 41 34 29 24 21 19 18 17 17 19

GFSSGP_250_spd_111.txt.gz
Wind_Speed
70 69 67 67 64 58 55 60 64 68 68 64 61 63 66 63 60 55 57 55 53 51 48 46 45 44 43 43 43 43 40 39 36 37 36 37 40 40 42 42 41 40 40 41 40 41 39 40 41
71 70 69 65 59 55 52 63 66 68 64 60 57 60 64 59 57 52 53 52 49 48 47 45 44 42 42 43 42 41 39 38 33 36 38 40 41 37 38 42 41 40 41 39 40 41 40 42 38
73 71 70 64 56 48 47 64 62 61 59 53 52 62 63 54 54 54 49 50 49 49 47 43 42 42 43 44 41 41 39 35 34 37 39 42 42 38 37 40 39 40 39 39 40 39 38 41 40
78 74 70 64 59 57 57 67 69 66 62 59 54 63 60 53 50 51 50 51 49 51 48 42 45 44 46 45 42 42 38 34 37 38 41 44 44 43 40 39 37 38 37 37 38 33 35 35 33
73 78 75 69 63 65 68 77 76 72 65 60 56 65 58 53 50 48 49 50 52 53 46 42 48 44 46 45 41 42 37 33 36 36 41 46 48 47 45 40 38 36 35 35 35 30 27 29 29
71 75 70 68 68 64 66 76 78 73 69 60 56 69 60 52 50 48 47 50 56 55 49 46 47 47 47 47 43 42 39 35 37 39 43 45 47 49 47 45 41 34 33 34 34 29 26 28 25
62 67 66 64 60 63 61 72 80 78 73 67 61 66 67 52 50 48 52 54 59 52 48 48 49 50 47 49 45 42 42 39 40 44 46 49 49 53 47 44 42 35 32 32 34 35 33 31 30
70 69 60 55 61 56 66 71 74 75 68 71 69 67 70 56 51 47 57 58 57 55 51 47 47 49 48 48 48 45 43 43 43 45 49 52 48 49 45 46 42 36 31 30 31 31 32 30 32
81 74 61 55 63 63 70 73 73 72 67 64 69 70 65 62 52 45 56 55 54 58 54 49 50 52 46 47 49 49 44 45 44 46 51 50 50 46 47 47 42 35 31 30 30 27 27 28 32
86 82 58 68 70 70 72 77 78 72 67 59 67 72 63 64 61 53 50 55 57 62 56 51 50 51 47 46 50 50 45 45 45 46 45 44 49 50 47 47 41 37 31 30 31 31 29 30 32
94 86 66 72 75 77 76 75 80 73 64 55 62 57 54 57 57 58 58 60 61 60 56 52 50 51 48 46 50 52 46 46 47 47 44 45 48 49 47 44 40 35 33 32 32 31 31 31 33
102 88 80 78 78 79 75 76 76 72 61 57 60 53 42 44 53 53 56 56 55 56 56 51 48 49 48 48 49 53 48 47 46 47 46 50 51 47 48 47 43 34 34 36 36 33 33 32 35
99 94 94 85 87 84 82 77 74 73 65 64 60 54 45 41 44 47 47 53 53 53 55 51 47 49 51 48 51 52 49 47 48 47 45 50 52 47 45 52 43 35 32 35 38 36 35 36 37
101 93 98 94 91 88 86 80 83 70 69 67 66 57 52 46 47 49 50 50 50 52 52 51 48 51 50 50 51 50 50 47 49 47 49 53 51 50 47 50 46 37 36 35 38 35 34 39 39
101 97 93 94 91 89 93 91 78 75 71 67 70 65 57 53 46 48 54 57 57 49 51 50 48 45 48 50 52 49 46 47 48 47 52 55 51 49 49 52 51 38 36 35 37 37 34 36 35
102 101 93 80 81 89 102 94 79 79 74 69 73 68 63 58 47 47 47 51 56 57 48 45 46 55 51 49 49 48 49 50 51 49 54 54 51 52 54 54 53 40 38 34 34 33 32 34 29
94 92 89 82 88 92 101 91 86 86 78 73 73 67 66 59 57 44 48 50 51 54 51 46 46 50 53 46 49 49 48 51 52 52 54 57 54 51 56 55 50 40 36 36 34 35 34 33 29
95 96 95 89 88 96 98 83 92 87 85 76 74 73 65 62 56 57 49 50 50 50 49 48 49 50 51 54 50 50 48 52 54 55 57 58 53 57 54 54 51 40 35 36 35 35 33 33 30
97 96 92 89 87 95 95 84 95 90 89 84 78 74 66 62 59 60 54 55 53 50 46 46 48 51 46 56 50 49 50 51 55 54 61 55 55 56 55 57 54 40 36 34 36 34 33 33 30
88 92 88 87 87 91 92 85 90 93 90 85 80 75 71 63 62 60 61 56 56 52 47 42 47 51 51 53 54 50 50 51 57 56 59 55 59 57 58 60 55 45 36 34 36 34 31 32 30
71 76 75 77 86 92 90 84 88 90 88 86 79 76 71 68 64 65 63 54 53 53 50 47 48 50 51 51 55 52 54 56 57 57 56 53 60 58 62 62 56 42 36 34 36 35 32 31 34
59 63 66 71 81 89 89 86 83 91 82 77 77 81 81 75 66 62 57 57 55 57 54 50 46 48 51 53 60 57 54 56 56 54 53 57 57 59 61 66 57 41 36 33 35 36 34 31 33
49 55 60 66 71 76 84 88 76 80 81 80 81 85 83 74 63 58 60 63 58 57 57 54 48 49 52 57 62 64 58 54 53 58 59 57 60 61 61 62 50 40 34 32 34 34 32 33 36
50 53 50 53 61 64 75 79 70 73 82 84 83 82 77 73 67 65 64 63 65 65 65 61 58 52 53 56 58 62 57 57 58 62 63 61 62 63 60 58 47 40 32 31 35 29 30 35 32
42 37 40 42 42 46 66 67 70 70 81 83 81 78 77 78 74 71 68 67 65 66 66 67 65 62 57 58 59 66 60 59 63 63 63 61 65 61 58 54 45 38 30 31 33 28 28 38 35
30 28 33 35 37 47 60 54 63 72 77 75 75 72 75 78 78 75 72 70 70 67 69 71 71 69 67 61 58 65 64 65 64 63 63 65 68 67 62 51 41 36 31 31 28 29 25 39 40
30 29 38 35 37 43 44 47 58 69 67 73 72 65 70 75 80 79 77 72 73 72 71 70 73 70 69 63 59 65 68 65 64 69 71 72 68 64 57 48 39 34 33 32 28 27 24 37 41
29 24 23 24 27 30 34 36 43 53 67 74 71 68 70 69 75 78 76 73 72 74 73 71 69 70 70 67 64 69 76 73 71 72 71 69 63 59 49 45 38 35 34 31 26 25 22 22 43
27 26 26 30 29 27 26 30 37 17 35 51 60 74 73 68 71 70 70 72 72 73 71 69 69 68 68 68 69 72 74 67 63 62 64 61 57 52 43 42 39 38 36 32 25 22 17 16 29
31 31 33 36 36 26 22 35 32 48 54 39 50 55 65 70 72 67 63 68 68 71 69 70 72 72 70 67 65 66 64 61 58 59 63 65 59 51 47 43 41 42 40 33 27 24 21 17 16

GFSSGP_250_spd_114.txt.gz
Wind_Speed
69 69 68 67 66 61 56 60 64 74 69 67 65 65 60 63 58 55 58 60 60 58 57 56 54 51 48 48 44 39 39 38 36 36 35 30 29 33 35 37 38 39 42 41 42 44 43 43 43
71 70 68 66 64 59 54 63 69 71 69 67 66 62 52 57 56 52 54 56 56 56 54 51 49 47 46 43 40 38 39 35 34 36 33 29 31 34 37 40 40 40 39 40 41 43 43 40 41
76 75 72 70 64 58 56 69 71 68 64 59 59 55 42 47 51 51 53 53 52 50 48 48 47 47 44 39 37 35 38 34 35 35 29 27 31 35 38 41 40 41 38 37 39 42 41 38 38
76 78 77 74 67 64 63 72 74 68 66 66 63 59 49 54 56 54 52 50 50 49 48 47 44 47 47 40 38 33 32 34 33 33 31 29 32 37 42 45 43 41 38 36 35 39 38 34 32
66 73 75 74 72 72 71 74 76 73 69 67 67 65 58 54 59 47 51 52 48 48 47 46 47 50 46 41 36 32 35 36 34 33 32 34 34 39 45 45 47 42 39 37 35 37 37 30 27
60 61 59 65 65 71 69 72 77 76 75 72 70 68 62 54 56 51 53 53 51 48 49 47 52 50 45 43 39 36 34 36 34 33 33 34 37 40 44 43 47 43 41 39 38 35 36 30 27
64 63 56 55 55 62 68 77 75 74 75 72 75 67 55 58 59 54 54 56 56 53 53 48 49 51 47 41 36 39 42 36 34 34 36 37 38 39 39 42 47 45 42 39 36 35 34 30 28
69 68 59 54 52 55 63 73 75 74 77 77 73 65 55 57 58 57 55 57 55 54 51 51 52 53 48 43 38 48 46 40 36 34 36 36 38 38 40 44 48 42 43 41 38 34 31 26 24
76 71 65 65 65 57 73 72 74 74 70 67 71 67 61 53 55 53 54 57 60 52 51 52 51 48 47 46 42 48 48 42 38 34 36 35 38 38 42 45 45 43 45 44 41 34 28 26 24
81 78 67 76 74 71 67 75 82 81 72 69 69 61 59 57 56 54 55 55 57 57 50 58 56 50 49 49 44 48 49 45 42 37 38 36 36 39 40 43 43 43 46 44 41 35 29 28 26
88 81 77 80 80 78 74 70 84 86 78 72 72 63 57 59 50 45 47 53 57 53 49 52 53 54 51 50 44 46 51 46 44 39 38 35 36 37 39 43 41 41 46 44 38 37 34 30 26
93 89 93 86 91 86 79 81 77 88 80 78 76 70 66 62 53 44 43 43 46 52 55 54 54 51 49 45 43 48 47 47 42 41 39 38 37 38 40 44 45 44 49 47 38 37 35 35 31
99 92 100 93 94 92 89 84 83 88 85 84 81 73 67 61 56 49 44 44 46 55 58 54 50 52 50 47 44 47 46 46 45 42 39 40 38 40 42 44 46 47 49 50 43 36 34 37 38
99 101 100 102 99 94 91 88 95 84 87 90 83 72 67 65 58 52 49 47 45 47 47 45 48 49 50 46 43 45 45 46 47 45 42 41 39 40 43 45 45 47 48 50 45 37 35 39 38
101 108 108 102 99 100 100 89 83 77 94 92 87 77 70 64 63 53 56 51 47 43 48 48 47 45 46 46 42 44 43 47 48 48 44 42 43 44 43 43 46 50 46 50 48 38 34 35 36
108 115 111 97 102 103 106 82 70 74 88 93 89 78 73 69 66 63 57 54 48 44 45 51 51 50 48 44 44 42 43 48 52 48 47 43 44 44 42 41 44 50 45 50 53 38 34 34 34
105 110 110 102 106 106 106 80 72 81 86 92 92 83 76 75 71 62 60 57 54 50 46 42 44 47 53 46 42 42 43 42 47 48 46 46 46 44 43 40 47 50 49 51 54 41 34 34 32
103 113 108 102 96 104 100 79 71 83 87 87 93 88 81 81 71 69 64 60 56 55 50 41 41 44 48 45 45 46 44 43 43 46 46 46 47 45 46 44 48 51 50 53 50 41 34 34 33
97 101 98 92 90 99 92 80 74 83 85 84 91 91 86 83 78 75 66 65 61 58 53 39 37 41 43 42 46 50 45 41 39 44 47 47 47 47 48 47 48 53 51 54 54 42 35 34 34
87 86 82 83 81 95 94 78 77 79 75 74 79 89 87 84 83 75 72 67 65 58 47 38 36 41 41 40 42 44 46 46 46 47 49 43 47 49 50 49 47 51 55 55 54 43 34 33 33
78 69 68 69 76 87 86 70 76 77 74 75 80 82 87 86 85 81 72 66 59 54 47 45 41 41 44 42 41 42 43 41 42 47 47 45 49 49 49 47 49 54 54 56 49 41 34 32 34
63 63 62 63 68 70 69 62 69 75 72 68 78 84 88 88 88 78 70 63 61 55 53 50 48 47 46 43 44 46 48 48 45 46 48 46 49 47 48 49 54 51 54 55 51 40 34 31 33
48 52 56 58 58 58 55 51 65 68 71 69 79 85 85 85 81 75 71 68 65 62 59 54 52 49 45 44 39 42 46 45 45 48 52 52 51 50 54 54 55 53 55 57 52 41 34 31 31
42 44 42 48 50 47 47 43 62 64 71 71 75 80 80 78 78 77 75 71 68 67 62 58 54 51 49 46 39 38 48 50 47 51 55 53 52 49 54 56 56 56 58 55 48 40 34 31 30
34 32 36 37 36 37 38 42 56 56 66 67 73 74 79 78 75 76 75 73 71 68 64 61 58 55 53 52 51 51 55 57 53 52 55 52 52 50 54 56 57 59 56 53 44 38 34 33 31
26 31 32 32 30 36 36 43 49 55 50 69 71 71 73 75 76 77 75 73 69 69 69 65 62 60 60 60 59 59 58 61 59 56 52 55 53 50 53 61 63 57 51 47 40 35 34 32 31
28 35 33 39 40 39 38 42 46 52 57 53 61 76 73 75 77 77 73 72 72 70 68 67 64 64 62 62 63 64 64 63 60 61 58 52 54 57 61 62 59 50 47 47 39 34 35 32 27
21 25 31 32 29 32 37 40 42 44 51 66 66 62 66 68 73 72 72 72 71 69 67 67 69 67 68 66 63 64 66 68 66 61 57 61 61 60 60 54 50 48 50 46 37 34 36 33 26
27 31 28 28 28 30 26 32 32 37 45 51 62 61 59 59 64 68 69 68 67 69 70 70 71 71 70 69 69 65 65 67 67 63 61 61 56 54 54 54 49 50 48 42 36 37 36 33 27
28 28 32 33 33 29 32 29 27 33 27 35 30 46 51 51 57 63 62 62 67 70 69 70 71 72 69 67 70 67 64 62 58 56 60 58 57 56 59 55 53 52 50 44 40 40 38 35 29

GFSSGP_250_spd_117.txt.gz
Wind_Speed
75 76 74 72 71 68 63 65 72 79 77 74 71 68 66 62 58 59 57 61 64 62 59 62 62 61 61 60 59 57 53 50 48 44 40 38 34 32 34 36 37 39 39 40 42 43 43 44 44
75 73 72 70 71 69 63 68 72 78 77 78 74 70 67 64 58 57 56 58 58 57 57 58 59 59 58 56 55 51 48 46 42 38 33 32 29 28 31 32 35 38 38 40 40 40 41 41 40
72 74 71 74 69 69 68 76 75 76 78 79 78 71 65 61 57 46 53 55 56 55 52 55 55 54 53 52 50 48 44 41 37 32 28 28 28 28 29 32 36 39 38 41 41 38 37 36 36
69 74 71 69 69 72 77 79 79 78 79 78 78 73 62 60 52 50 53 51 55 53 50 50 51 50 47 46 48 46 42 36 31 31 26 27 27 29 30 31 35 38 40 44 43 39 37 34 32
57 59 61 58 60 63 69 76 75 78 80 83 83 78 69 64 57 51 56 60 57 54 50 50 50 48 48 46 48 45 41 34 30 27 26 26 28 27 27 29 34 37 43 43 43 40 37 33 31
56 56 55 52 53 55 57 65 64 71 77 81 83 80 75 69 61 57 61 61 58 55 50 55 52 48 50 49 45 44 42 34 28 27 28 28 27 27 27 29 33 37 43 45 43 41 38 33 33
55 56 53 51 52 54 57 67 64 63 64 72 73 70 72 74 71 65 64 63 57 57 56 56 52 48 47 45 43 47 41 38 34 28 30 30 27 28 28 27 31 36 43 45 45 44 38 32 32
59 57 52 50 51 57 63 66 67 64 64 66 66 60 64 69 72 72 65 61 58 58 60 59 56 49 47 47 44 46 45 41 40 32 32 33 31 29 29 27 30 35 40 43 46 45 39 34 25
68 63 57 58 58 63 62 70 71 71 65 70 75 62 57 61 68 66 61 59 55 57 62 60 60 54 49 48 48 43 43 44 41 36 32 34 32 31 29 27 29 35 39 44 46 47 43 33 27
68 66 60 66 70 67 67 73 75 76 71 71 74 75 65 56 58 62 61 61 58 57 62 59 58 57 54 50 50 49 46 46 44 38 34 36 34 33 30 30 30 34 39 44 46 48 44 39 30
75 67 81 77 79 77 74 75 81 84 75 73 76 78 73 67 55 54 52 55 58 60 61 60 58 54 56 49 48 46 45 47 47 37 33 36 32 34 32 33 32 33 39 44 43 44 44 41 34
69 66 73 73 75 73 78 84 87 86 81 85 83 80 78 71 63 57 58 52 53 51 53 55 59 55 53 50 47 45 46 46 43 41 35 35 34 34 34 34 31 35 38 42 43 43 44 44 34
73 74 76 75 79 84 88 85 89 85 83 95 93 88 80 75 70 62 64 60 53 52 53 56 59 58 51 52 51 51 47 45 43 42 38 35 36 38 37 36 33 35 39 40 42 43 45 46 40
84 84 83 86 85 92 94 88 91 75 83 95 95 94 86 78 76 70 63 64 61 59 57 54 52 52 52 55 55 53 49 44 44 44 40 37 39 42 42 39 37 37 38 39 41 44 47 48 44
93 95 99 94 97 89 96 89 83 73 92 91 91 97 89 78 76 74 66 66 64 60 59 58 52 47 44 46 48 44 43 42 44 43 40 38 40 43 44 40 37 40 39 40 41 44 45 48 47
104 106 104 90 97 101 101 103 88 88 98 97 95 98 95 74 70 75 71 69 65 62 60 62 53 49 46 46 46 43 40 39 42 44 40 37 38 43 41 40 38 39 40 41 42 43 45 49 47
97 99 98 88 98 101 104 109 94 99 101 96 94 96 99 80 71 74 74 71 68 67 66 61 54 50 49 48 46 46 45 41 42 42 38 34 36 40 39 40 39 39 39 42 42 43 45 49 47
101 106 103 101 94 108 107 117 105 101 105 99 97 94 96 83 71 71 75 77 77 72 67 63 57 52 48 45 41 40 43 45 46 43 42 41 36 37 38 38 40 40 42 41 41 44 45 47 46
102 105 109 106 107 108 116 115 108 102 102 98 92 91 88 77 67 71 79 84 86 77 66 65 57 53 46 44 41 40 41 41 41 43 44 44 37 38 37 38 39 41 43 41 43 45 45 48 47
107 109 106 102 103 105 102 102 95 93 90 89 88 82 77 71 70 73 84 89 87 73 65 64 57 52 48 47 45 40 41 42 42 41 42 44 43 40 37 38 40 41 43 41 42 44 47 49 48
104 102 104 95 87 87 81 76 78 80 83 84 82 77 74 70 72 76 83 84 82 72 66 64 59 53 55 52 48 42 44 43 38 40 41 45 40 35 38 39 41 42 41 41 44 48 49 51 49
83 88 81 81 75 72 66 49 59 70 71 74 76 76 73 70 68 72 76 81 82 76 70 63 59 58 58 54 50 47 45 43 43 38 37 41 45 44 39 40 45 43 43 44 46 48 51 54 47
70 63 61 61 60 60 51 39 54 62 63 66 71 74 70 70 67 69 75 79 82 77 69 64 63 63 60 56 50 48 42 44 45 35 35 39 41 41 37 44 48 49 48 44 44 47 55 51 44
54 53 50 49 43 46 45 45 48 50 52 58 67 70 67 65 62 65 73 78 77 73 69 68 69 66 61 57 52 49 47 45 41 41 49 53 48 42 40 47 48 48 44 42 46 50 53 47 42
42 40 37 36 37 39 35 39 38 39 44 52 56 61 63 62 62 66 73 76 75 72 72 72 70 68 64 58 54 52 52 48 44 43 35 52 54 43 41 45 45 47 44 46 49 53 50 41 42
34 35 31 31 33 32 32 33 31 36 37 40 45 53 58 60 62 65 71 74 74 72 74 74 71 69 65 62 57 56 56 53 51 52 48 53 55 55 51 45 46 49 50 50 51 51 46 43 43
24 24 25 27 29 33 34 31 35 35 33 28 43 50 54 61 66 66 70 75 78 77 77 75 73 69 67 66 62 61 60 58 60 60 61 61 60 60 59 52 48 48 50 53 51 47 45 42 42
18 19 21 25 29 31 33 31 34 39 45 34 30 47 55 60 65 69 70 73 75 76 77 74 71 69 68 66 65 65 63 64 65 65 64 63 62 62 62 55 54 55 52 53 51 46 41 39 38
17 21 22 20 25 30 33 34 35 39 47 44 40 49 51 64 68 68 71 73 74 75 75 75 73 71 69 66 67 67 66 65 66 69 66 62 61 61 56 54 52 54 54 54 54 51 43 37 37
17 19 20 23 28 30 31 35 38 45 53 54 56 58 45 53 66 59 63 69 70 71 71 72 71 70 69 68 67 70 69 67 67 72 66 62 60 59 58 54 51 55 54 58 55 47 42 37 37

GFSSGP_250_spd_120.txt.gz
Wind_Speed
76 77 78 75 73 71 70 72 77 84 84 77 77 75 72 69 67 65 65 66 65 67 67 64 64 65 63 64 62 59 57 56 53 53 50 48 48 47 43 42 40 40 43 45 45 41 41 41 40
73 74 75 76 72 70 70 77 82 81 82 82 81 77 75 72 69 67 66 65 64 65 65 60 58 62 61 60 60 58 55 54 52 46 45 45 43 42 39 36 37 37 39 38 38 41 40 40 39
67 69 68 70 69 69 73 77 77 77 79 79 80 77 75 74 72 68 68 67 68 64 66 58 55 57 57 55 57 54 52 50 50 46 42 40 36 36 33 32 34 36 38 34 37 39 39 41 39
58 58 57 61 61 65 74 76 79 77 77 76 75 76 75 76 74 70 67 66 66 66 67 61 57 59 57 54 52 51 49 48 46 43 35 34 31 30 30 32 29 32 31 32 36 36 39 38 38
53 53 51 50 53 57 64 71 73 74 76 76 75 77 72 73 73 70 68 65 63 64 67 64 62 61 58 53 50 50 51 48 44 41 33 31 25 25 28 29 27 28 27 29 32 36 39 39 36
57 55 49 45 52 56 58 66 63 64 68 71 66 64 61 66 67 70 71 71 65 64 65 65 64 60 56 51 51 49 49 46 41 40 32 30 28 23 26 28 27 25 25 27 30 36 42 42 38
57 54 48 48 51 53 58 69 68 68 69 67 62 61 59 61 63 62 61 61 58 60 65 67 64 61 56 50 51 50 49 46 42 41 36 33 29 25 25 27 28 24 21 25 28 34 42 43 37
56 57 53 54 50 55 64 69 68 61 58 61 57 53 55 61 58 58 59 56 56 57 60 65 67 61 54 50 49 51 52 49 45 39 37 36 33 29 26 26 28 26 25 26 29 33 39 41 40
63 58 55 56 61 64 65 69 70 63 62 62 63 60 61 60 58 59 56 55 52 55 58 61 63 60 50 48 49 52 54 51 48 43 42 39 35 30 27 30 29 28 27 28 30 32 36 38 39
63 59 59 62 65 65 65 66 69 68 66 67 71 68 63 65 64 62 58 55 51 51 56 59 62 60 52 51 55 53 52 53 49 46 44 39 36 32 32 28 27 30 28 26 29 32 34 38 39
62 59 68 66 66 67 68 69 70 71 71 74 78 81 74 71 68 64 64 59 56 52 50 58 60 60 58 56 57 56 55 53 50 45 43 41 40 36 33 29 28 30 29 27 30 32 33 37 40
73 70 67 64 70 70 73 76 77 73 70 76 75 77 75 74 77 74 66 62 59 59 55 55 57 58 62 63 62 59 54 52 50 43 44 42 42 37 35 31 30 32 33 30 30 33 33 37 39
74 69 68 69 72 75 74 72 71 66 73 77 81 81 84 82 80 82 75 67 61 62 64 59 60 59 56 54 53 53 49 51 45 47 47 48 43 39 36 32 32 34 37 32 32 34 33 36 37
76 71 69 69 70 72 75 74 75 69 80 83 85 87 87 83 80 78 81 71 66 64 66 65 66 61 60 54 50 49 50 48 46 48 50 49 45 41 37 37 33 35 37 33 33 34 33 36 38
74 71 70 74 78 83 88 80 81 84 89 86 92 97 94 84 86 81 81 79 74 65 67 67 68 67 63 59 56 52 46 45 47 49 49 43 42 39 38 36 33 35 35 33 33 34 33 35 36
84 84 83 83 90 91 99 88 92 97 99 95 89 91 96 101 96 91 83 80 69 62 63 69 70 71 65 64 59 51 45 44 41 40 41 43 44 39 38 33 33 34 34 33 33 34 35 33 35
95 94 97 88 95 100 109 106 87 89 93 91 90 90 90 90 95 93 88 79 72 64 61 69 73 75 67 63 63 51 46 45 45 44 42 43 43 39 38 33 32 31 32 32 35 35 36 33 33
99 100 96 95 95 100 101 113 98 86 94 98 96 91 95 92 93 93 89 81 71 67 64 67 74 77 68 61 62 55 48 45 47 47 47 47 47 42 42 39 32 34 31 32 35 36 35 33 33
98 101 95 94 96 97 107 111 109 99 93 107 103 97 95 97 98 99 88 80 75 73 62 66 76 78 68 62 62 56 52 47 42 44 43 44 48 46 43 42 36 35 35 34 33 36 37 35 36
102 97 98 94 94 102 102 116 116 110 108 109 109 104 97 102 103 105 97 89 83 72 54 68 81 80 69 65 64 58 53 47 43 44 43 41 44 43 41 41 39 39 36 33 34 36 37 35 38
95 98 100 104 98 100 101 93 99 100 99 103 107 110 114 112 111 107 100 92 79 67 59 69 79 77 70 67 67 60 53 49 46 44 44 39 41 42 43 41 36 32 34 32 33 37 37 38 40
90 102 96 96 93 87 89 67 76 79 81 78 83 88 96 99 104 102 96 89 62 59 65 71 76 77 73 71 68 62 57 51 47 45 41 37 36 38 39 37 34 34 37 33 31 37 41 40 39
89 91 84 83 80 74 76 57 67 61 63 61 63 71 76 81 85 86 81 73 62 64 66 72 76 78 78 73 69 66 59 55 49 46 43 40 36 35 32 31 32 32 36 35 34 39 37 38 40
74 70 65 60 59 55 53 53 53 51 52 51 53 57 62 68 65 65 64 61 60 64 70 73 78 79 80 76 73 69 63 57 50 49 46 43 43 41 38 39 38 44 49 38 39 39 39 38 43
55 52 49 46 44 44 45 41 42 40 39 41 45 51 54 51 51 54 54 55 59 66 67 71 75 79 80 78 75 70 65 58 52 51 48 45 43 46 36 41 48 55 45 39 42 43 45 44 46
45 42 40 34 33 34 33 33 30 29 33 34 35 37 40 43 46 49 51 58 61 63 67 68 75 79 80 79 76 72 68 61 56 54 53 52 44 42 26 35 39 42 45 46 47 46 46 45 46
34 33 31 26 27 28 29 31 29 29 34 35 32 30 32 35 40 46 51 57 58 60 65 69 70 79 80 79 78 73 69 64 59 58 56 56 48 50 49 45 46 50 50 53 55 51 48 47 50
27 23 21 22 22 24 26 25 30 30 28 31 33 25 27 33 38 44 50 54 56 59 63 67 70 76 79 80 81 76 71 67 64 62 61 60 54 52 56 54 56 59 58 55 56 54 51 49 52
18 13 15 18 16 19 22 24 29 34 33 31 32 30 20 32 36 42 48 52 54 57 60 66 72 74 76 78 78 75 73 70 67 66 65 63 59 58 58 61 60 60 61 58 55 55 54 52 53
15 13 15 17 16 18 20 24 28 34 37 40 41 38 27 22 34 37 44 49 53 56 59 67 72 72 72 73 74 73 72 71 69 68 69 70 67 63 63 59 58 60 61 58 57 58 60 58 55

GFSSGP_250_spd_123.txt.gz
Wind_Speed
74 73 73 73 72 72 73 75 81 84 82 79 78 74 74 73 71 71 70 72 70 71 71 70 68 67 68 68 67 67 65 63 60 58 57 54 52 53 55 52 50 50 49 50 49 50 52 50 48
72 74 76 76 74 74 69 80 85 84 83 81 80 77 76 75 75 74 74 73 72 71 72 71 68 65 67 66 67 65 62 62 60 58 55 49 48 47 47 46 43 42 44 44 45 44 45 45 43
54 61 66 67 70 70 72 79 83 82 81 79 80 80 77 78 78 77 75 73 73 73 69 71 71 67 64 64 64 63 60 59 56 55 51 51 43 43 41 41 41 37 37 37 37 39 40 38 37
47 49 49 48 55 60 66 71 71 69 67 71 76 77 78 76 77 74 71 72 74 72 71 68 69 68 62 61 59 59 57 56 52 50 46 44 39 39 39 36 36 32 32 32 33 33 31 32 33
47 48 48 47 50 55 61 64 61 61 61 62 61 69 70 72 71 72 73 73 69 70 69 68 69 68 61 56 55 57 56 53 49 44 42 39 38 35 34 34 30 29 29 29 29 25 26 30 33
48 50 50 51 54 58 61 65 60 59 61 60 57 60 62 61 61 62 62 60 60 62 63 63 67 66 65 58 56 56 57 52 47 42 43 39 40 36 34 33 31 29 29 28 27 27 26 31 32
49 49 51 54 53 53 58 63 63 60 60 61 55 56 58 56 56 57 58 57 56 55 54 58 63 63 59 57 55 55 57 52 49 45 42 41 39 36 34 34 33 27 29 28 29 28 30 30 31
52 49 45 50 54 55 62 65 65 63 60 59 52 50 54 55 54 53 53 52 53 55 57 56 55 55 54 51 51 50 53 53 50 45 45 41 40 36 35 34 33 29 30 28 27 28 27 28 29
56 52 54 57 57 57 58 61 65 65 63 62 58 55 57 59 59 57 56 56 55 53 54 55 57 56 54 50 49 47 50 49 48 45 48 45 43 41 40 38 33 29 30 28 26 25 26 27 28
59 54 58 59 61 62 63 62 65 66 67 67 67 62 59 59 60 58 58 60 58 60 57 55 56 58 55 53 48 48 50 51 50 49 49 45 45 45 41 38 34 31 30 28 26 25 27 27 28
62 63 70 68 67 67 66 64 64 69 68 69 67 66 63 62 64 66 65 65 64 63 56 54 55 59 58 53 53 49 49 49 48 51 49 48 48 48 43 37 38 35 30 26 26 26 30 28 27
68 72 72 72 74 73 72 72 70 71 70 72 72 73 69 69 70 70 65 68 67 64 61 59 56 58 62 59 56 50 49 48 49 51 51 49 48 49 43 39 37 35 31 26 28 29 29 29 29
74 75 76 78 80 79 78 74 75 70 70 77 78 78 79 77 70 67 67 65 64 64 65 62 60 60 64 65 61 53 49 46 46 49 49 46 47 45 44 42 39 35 35 28 26 30 29 29 29
76 75 78 79 80 83 82 78 76 71 77 79 82 85 83 78 73 70 69 70 71 73 71 70 61 57 64 68 66 59 52 47 46 45 43 45 47 44 45 44 41 38 37 32 25 29 29 29 29
78 77 81 80 78 81 79 70 74 73 75 73 78 81 78 78 77 74 76 76 77 80 80 73 67 61 58 68 70 64 57 49 50 49 44 44 45 45 47 46 40 36 34 32 31 28 30 28 30
78 78 78 81 84 84 84 67 80 79 79 77 77 78 84 85 85 83 82 84 84 83 79 79 74 65 63 70 68 67 61 53 50 52 51 48 45 46 48 42 37 35 32 32 32 29 29 29 31
83 81 79 79 85 90 94 82 87 89 91 91 93 90 87 89 93 94 91 89 87 82 77 75 77 78 67 68 71 66 64 55 54 52 52 48 43 41 43 41 38 38 35 31 30 32 31 31 31
83 85 84 84 90 99 100 96 89 98 102 103 105 104 101 96 96 102 99 92 89 86 84 81 75 75 68 63 70 69 65 58 56 51 49 46 43 44 44 43 44 41 37 30 32 35 32 31 30
86 86 87 90 93 101 96 100 92 93 101 104 107 105 102 100 98 103 102 92 92 92 92 88 82 80 69 58 63 69 68 62 60 56 49 49 45 45 47 49 48 45 40 39 36 34 32 32 29
92 94 96 92 99 101 98 98 97 93 99 111 109 109 111 109 107 107 103 100 100 98 94 90 85 76 69 58 61 66 71 66 63 58 53 50 46 44 44 47 44 41 40 41 41 41 38 32 30
95 97 95 93 89 93 97 98 101 105 107 107 110 113 112 111 114 112 105 103 99 102 96 94 85 80 67 63 60 61 70 71 65 62 58 55 50 43 44 45 40 36 37 39 37 34 34 35 32
91 95 90 84 87 85 91 82 87 91 95 92 90 99 102 103 105 108 112 116 109 103 97 91 84 73 66 60 61 64 70 73 69 67 60 55 49 46 46 43 37 38 40 40 38 38 32 34 32
89 82 81 83 85 81 79 76 72 77 78 68 64 68 72 74 82 92 105 110 111 102 94 91 85 74 70 68 70 65 67 76 74 69 61 56 50 47 43 37 32 33 30 32 30 30 30 31 35
77 74 74 71 72 71 66 65 63 59 58 56 53 53 56 60 66 71 82 97 103 95 92 88 87 84 79 74 71 61 65 75 75 70 62 59 54 50 47 41 40 38 35 35 41 35 38 37 36
70 64 59 58 55 51 49 48 46 43 44 44 43 44 45 47 52 57 65 75 83 86 92 91 89 85 78 72 71 66 69 73 75 70 66 60 54 51 53 46 45 45 46 46 46 44 40 37 37
59 52 47 45 43 40 37 38 33 33 31 32 32 32 32 35 39 44 52 60 66 70 78 84 82 78 77 74 69 72 70 73 76 71 66 62 55 53 53 50 44 48 53 50 46 42 46 43 40
52 43 40 37 35 30 30 30 30 29 26 26 26 25 23 25 30 33 38 46 53 58 64 68 71 71 69 66 68 68 72 75 77 72 68 65 60 56 54 51 50 50 52 50 42 37 42 46 49
43 36 32 28 24 19 24 24 26 24 23 25 24 24 23 23 25 26 31 36 44 51 59 62 66 68 68 71 74 70 72 76 76 72 71 68 65 60 56 55 54 50 48 49 47 46 52 51 52
36 31 23 21 18 15 16 20 24 26 23 26 24 22 21 21 17 22 27 34 38 45 53 59 63 65 74 70 69 74 73 68 75 79 72 72 68 64 57 58 52 55 53 54 53 56 58 61 58
30 23 19 17 16 14 18 24 23 24 24 24 29 28 28 30 21 13 21 26 30 41 52 57 60 67 76 78 71 68 80 82 83 82 77 73 72 68 64 59 59 58 59 60 61 61 59 59 55

GFSSGP_250_spd_126.txt.gz
Wind_Speed
72 71 71 71 71 72 73 79 81 79 80 80 79 78 76 75 75 76 75 77 76 76 76 75 73 70 70 70 69 68 67 65 64 65 63 60 59 58 55 57 55 53 48 49 51 50 49 51 51
73 76 75 72 72 71 74 81 81 79 79 79 79 77 77 76 76 76 78 78 78 76 75 77 77 75 73 72 71 70 67 63 63 62 61 59 56 56 54 50 47 47 44 44 46 45 44 45 47
57 57 60 60 60 64 73 80 82 82 78 77 79 79 78 77 76 78 79 77 79 78 78 76 77 76 74 72 71 69 67 61 61 59 57 54 53 53 48 44 41 43 43 41 42 40 39 38 39
45 45 48 48 46 53 64 67 68 71 68 67 67 71 74 73 72 71 72 73 74 75 71 70 71 71 72 68 66 65 64 60 58 55 53 52 50 48 45 39 37 35 38 41 38 36 35 34 31
43 43 42 42 44 47 53 58 57 56 55 55 54 57 58 57 56 57 59 61 65 65 65 66 70 69 67 66 66 62 61 57 52 51 51 51 50 45 42 37 35 35 37 39 36 36 33 31 28
43 43 41 41 44 48 56 59 58 58 56 53 50 53 53 49 50 54 55 56 57 57 57 57 58 59 59 59 57 55 56 57 53 51 50 52 49 44 41 36 35 35 34 36 34 37 35 33 29
43 42 40 40 44 51 58 60 59 57 56 53 51 51 53 49 51 53 53 54 54 54 53 53 53 52 51 47 48 52 54 54 53 51 49 49 48 47 40 37 32 33 36 36 34 35 34 33 25
50 48 49 49 53 54 54 59 57 57 58 55 50 50 51 53 53 54 54 54 53 50 50 51 53 52 50 49 46 44 45 48 50 46 45 47 42 42 41 37 37 34 37 36 35 34 35 34 26
56 55 55 55 57 55 56 60 60 61 62 61 58 54 52 55 58 57 58 57 55 56 55 55 53 53 52 50 49 47 45 43 46 47 45 44 41 41 43 41 37 35 36 34 36 32 32 33 26
63 61 59 60 60 61 59 61 63 63 63 66 65 62 59 59 62 63 63 64 66 63 61 60 57 55 54 55 51 48 48 45 43 42 44 43 43 42 46 40 38 38 38 34 36 33 30 29 27
58 66 66 66 66 66 64 63 67 69 69 71 72 72 67 62 64 66 64 65 66 65 62 61 60 58 57 56 55 52 50 49 45 42 40 41 44 44 41 41 39 42 40 37 37 35 29 32 30
55 58 64 68 67 67 68 66 69 73 71 74 74 75 74 71 66 66 66 65 66 63 65 65 63 58 59 59 57 54 53 50 47 45 42 42 42 44 41 42 41 43 39 36 35 35 27 29 31
56 60 63 69 72 73 73 73 72 74 75 76 75 78 77 74 71 71 72 71 68 68 70 71 67 60 57 56 58 56 51 52 49 48 44 42 44 45 42 41 42 42 38 38 34 35 33 26 30
58 61 66 69 73 75 75 77 80 81 81 80 79 79 79 76 74 74 75 77 76 75 75 76 67 63 60 60 63 64 62 52 50 50 49 44 45 46 44 41 40 42 39 37 36 38 37 26 28
65 67 69 71 74 77 79 80 84 85 83 81 79 80 80 82 79 78 83 82 82 80 81 76 69 68 66 63 64 64 63 58 47 49 50 50 46 43 43 40 42 42 40 39 38 37 33 29 29
72 76 80 82 80 79 77 70 83 84 86 85 86 82 81 80 85 85 85 88 86 87 82 74 73 72 71 70 65 67 68 64 58 46 51 53 50 46 43 43 42 45 45 39 37 33 31 31 34
77 81 84 86 87 86 86 77 89 89 92 91 90 89 83 80 82 87 87 84 83 79 80 80 80 76 74 73 72 66 67 62 61 56 50 55 54 48 46 45 45 46 45 37 36 35 30 33 39
78 80 82 86 87 86 86 82 90 94 97 96 97 93 91 87 85 92 94 91 90 84 86 87 88 83 82 80 73 69 65 60 54 56 55 57 57 51 48 47 44 42 40 39 34 37 34 32 36
81 81 80 84 91 89 92 88 90 98 103 103 100 99 98 97 98 98 100 102 96 99 93 91 91 88 88 84 78 70 68 69 57 56 58 58 60 54 51 47 43 41 42 42 44 40 41 39 33
80 80 82 83 91 93 94 90 98 97 100 97 98 102 103 102 103 107 109 106 106 106 104 101 99 96 93 90 78 76 75 72 67 59 60 61 63 58 50 46 44 42 41 42 46 41 43 43 40
84 86 86 86 90 96 95 87 96 92 92 94 99 98 99 102 106 110 109 110 112 114 112 109 105 100 95 91 80 74 76 73 67 64 62 62 64 60 53 46 42 42 41 41 42 39 39 37 39
88 90 89 88 88 86 91 80 91 89 84 81 85 87 86 88 90 94 104 110 113 115 114 112 108 103 101 96 87 80 76 75 73 70 64 61 66 64 56 51 46 44 43 41 38 34 35 39 38
88 86 87 89 84 77 79 79 75 78 80 80 73 70 74 78 80 83 86 94 105 115 116 114 109 107 102 97 86 65 66 74 70 71 69 62 69 66 59 52 49 47 42 36 33 36 38 38 37
85 85 83 81 78 73 69 67 64 63 68 67 62 55 58 60 60 66 73 82 93 103 110 114 105 106 103 94 85 65 81 79 73 76 74 65 64 66 62 54 53 48 42 35 34 37 37 36 34
83 81 77 76 71 63 58 53 51 51 52 53 51 50 50 50 51 52 56 63 74 87 102 106 101 101 100 97 91 88 86 90 92 85 74 64 65 63 63 59 52 48 46 41 42 46 46 49 49
78 73 71 67 56 52 46 40 38 33 35 37 39 42 39 40 44 45 45 49 56 66 79 92 99 102 100 96 100 97 93 98 100 88 68 63 63 63 66 59 54 52 49 45 46 48 52 52 50
74 68 64 54 49 44 40 32 26 24 24 27 30 30 29 30 31 33 35 38 43 50 60 71 79 92 100 98 100 103 101 95 90 81 65 60 64 64 65 62 56 55 55 51 46 49 50 54 56
69 62 56 48 42 36 30 21 20 20 21 26 27 28 25 24 25 20 22 29 32 39 47 56 64 78 91 92 98 94 89 87 83 63 66 62 65 62 62 65 60 58 59 56 51 55 51 51 56
67 59 50 41 34 28 22 17 20 20 23 26 25 25 23 20 19 17 14 17 23 28 37 47 53 61 78 92 83 82 81 86 75 67 62 58 59 61 67 65 63 61 63 58 57 57 54 55 50
63 50 44 34 26 19 16 17 19 22 25 25 23 23 23 21 18 18 11 11 16 20 30 37 43 51 60 72 78 76 66 67 62 57 58 63 61 68 70 70 70 66 64 64 63 62 60 57 56

GFSSGP_250_spd_129.txt.gz
Wind_Speed
71 74 73 73 71 69 73 79 77 76 76 74 74 73 71 72 75 79 77 79 79 80 80 76 75 75 74 75 76 75 73 70 68 68 67 69 68 66 64 64 61 59 59 57 52 51 49 49 47
59 65 73 73 71 71 74 77 75 78 77 76 75 74 76 75 76 75 77 79 82 82 80 77 76 76 76 75 73 74 72 71 69 68 66 66 66 65 63 63 56 54 51 52 51 47 46 45 43
46 50 54 60 67 71 74 75 77 80 80 78 77 79 80 79 74 77 79 81 79 79 79 76 77 75 76 78 76 74 72 69 65 65 64 63 62 59 60 57 53 50 48 46 45 45 43 42 40
41 42 45 47 52 59 66 69 72 77 78 77 69 72 70 75 71 72 75 77 73 73 74 75 72 73 72 69 72 70 70 67 64 63 61 60 56 54 52 50 50 46 44 41 37 45 42 41 38
40 41 42 43 45 49 52 59 58 56 56 57 57 59 56 53 58 59 63 62 63 63 63 64 63 61 63 64 64 63 63 64 61 61 60 54 54 52 51 49 48 45 44 40 40 41 38 39 38
47 43 40 40 40 45 45 55 49 50 48 47 46 48 54 50 51 55 54 54 55 55 56 55 54 54 55 55 53 53 52 51 52 53 49 50 51 51 51 49 45 44 42 41 37 36 37 39 36
47 45 43 43 45 43 44 50 48 51 48 47 45 49 48 40 49 48 49 51 52 54 54 52 52 53 51 49 48 45 45 43 44 45 44 44 49 48 48 44 41 38 38 38 35 36 35 38 38
50 46 47 47 45 46 50 52 59 54 56 55 51 55 53 41 55 50 49 51 51 52 53 53 55 54 54 50 48 47 44 43 40 40 40 40 39 42 40 42 35 37 38 39 37 38 39 36 35
54 55 52 55 52 54 55 57 61 57 59 61 59 58 53 50 52 55 55 56 55 55 56 56 56 56 53 51 53 53 50 49 45 40 39 37 36 38 41 41 36 41 44 42 37 37 37 34 33
49 50 62 62 63 59 63 61 66 62 65 65 64 62 58 57 58 60 59 59 60 60 60 60 60 58 59 60 56 53 48 48 46 44 42 39 35 35 41 41 37 40 46 42 38 39 39 37 33
56 58 56 52 55 55 66 68 68 69 68 70 68 68 65 62 63 63 62 63 65 65 65 64 63 60 60 60 57 56 54 49 50 48 45 42 39 38 38 42 39 40 43 37 39 40 40 38 33
59 60 56 55 56 56 58 58 65 68 66 70 68 68 67 64 66 68 67 65 66 67 67 68 66 64 64 61 61 59 56 53 49 50 45 42 43 40 38 39 39 44 41 40 40 41 37 37 34
55 58 58 59 58 58 61 63 64 67 70 71 72 70 71 70 67 68 71 69 67 70 69 70 69 67 65 63 64 64 62 56 50 48 45 41 45 44 41 40 40 43 45 44 42 42 37 38 36
52 54 55 58 57 58 58 60 67 69 69 68 76 77 77 78 76 74 77 77 74 72 73 72 72 70 70 68 67 66 68 60 54 54 50 48 40 47 46 43 41 41 40 42 43 42 39 38 38
57 56 60 61 61 65 64 67 73 70 71 72 74 78 82 83 82 81 78 80 79 78 76 75 74 73 72 71 69 66 69 66 59 57 54 51 42 45 50 49 45 41 39 42 39 40 40 39 40
65 67 69 68 69 73 74 79 83 83 83 84 83 81 81 86 88 87 87 84 86 83 82 79 76 77 78 79 78 75 70 70 67 63 57 57 55 47 50 50 49 43 40 41 41 41 43 40 38
71 71 75 78 80 80 82 85 92 95 95 93 94 95 91 89 93 95 94 92 92 92 89 88 83 81 87 88 85 82 73 71 73 69 61 57 60 55 50 52 50 49 44 43 42 45 46 40 38
78 79 82 82 86 84 81 85 93 97 99 100 98 97 99 100 96 95 99 99 97 97 96 85 84 86 87 89 87 83 71 69 72 69 63 58 57 63 50 49 51 52 48 44 44 46 49 36 34
80 79 83 87 85 83 85 83 91 94 98 93 92 94 96 100 100 101 100 103 102 100 98 94 86 86 87 88 81 80 70 73 76 67 69 69 67 63 59 48 53 52 50 47 46 45 44 40 34
83 85 84 84 85 85 86 85 89 95 93 88 90 95 95 96 100 103 103 105 107 107 102 100 96 91 89 86 84 79 76 78 78 78 75 71 73 70 69 57 49 50 52 49 48 46 43 42 40
91 89 90 95 96 94 87 82 88 91 93 87 93 98 99 98 98 102 105 109 109 108 107 106 106 99 95 91 89 86 83 84 79 76 74 76 80 77 69 57 54 50 53 52 51 49 45 43 38
94 91 90 91 91 91 90 80 92 87 90 91 88 92 88 87 85 88 94 95 97 100 109 113 112 109 105 96 91 90 87 88 84 83 86 88 79 74 66 53 55 51 53 52 52 49 44 43 37
90 87 88 89 88 88 91 86 87 82 82 80 78 78 75 73 75 74 77 83 84 88 99 108 116 114 106 103 98 93 88 86 80 76 79 81 80 76 65 53 52 51 54 57 53 48 43 41 35
88 89 90 87 85 88 84 81 75 77 75 72 68 67 63 61 62 59 61 67 74 79 84 97 108 115 109 101 99 88 88 87 76 69 69 74 89 83 76 61 52 56 55 60 59 52 45 38 31
88 91 88 83 87 81 74 72 70 67 61 59 56 53 51 51 55 51 48 51 58 67 74 83 93 106 113 92 96 84 74 82 66 41 46 89 78 85 81 65 57 60 59 62 59 54 47 40 37
87 85 82 83 84 78 72 65 59 53 51 50 45 40 38 40 42 43 37 37 42 49 59 69 79 89 98 97 90 79 71 82 80 74 75 62 74 74 64 63 56 70 73 62 63 57 50 45 43
86 78 77 80 79 71 64 54 50 45 44 39 37 33 28 28 32 33 31 28 30 36 42 54 65 75 86 92 92 88 76 82 88 88 87 89 93 75 62 62 62 74 70 62 66 59 54 50 47
74 71 74 78 71 66 55 46 41 38 35 26 28 29 30 34 28 30 29 26 23 25 33 42 52 64 74 83 89 90 79 80 85 91 90 92 92 97 84 75 78 79 68 65 66 61 60 51 47
69 69 74 69 61 56 47 39 33 31 25 21 23 27 29 29 31 26 24 19 16 19 28 37 45 56 65 74 81 84 88 86 85 92 94 94 90 93 87 82 87 94 74 68 67 63 64 57 53
62 66 71 59 55 47 38 34 31 24 20 20 24 26 28 35 24 27 11 7 10 16 25 31 38 45 55 66 78 85 87 90 95 103 99 94 89 93 98 93 98 79 76 68 69 66 66 63 57